Time,TemperatureF,DewpointF,PressureIn,WindDirection,WindDirectionDegrees,WindSpeedMPH,WindSpeedGustMPH,Humidity,HourlyPrecipIn,Conditions,Clouds,dailyrainin,SoftwareType,DateUTC
2013-02-05 00:00:00,33.3,14.2,28.91,NNE,28,0.0,0.0,45,0.00,,---,0.00,VWS V14.00,2013-02-05 05:00:00,
2013-02-05 00:05:00,33.3,14.2,28.91,NNE,28,0.0,0.0,45,0.00,,---,0.00,VWS V14.00,2013-02-05 05:05:00,
2013-02-05 00:10:00,33.3,14.2,28.91,NNE,28,0.0,0.0,45,0.00,,---,0.00,VWS V14.00,2013-02-05 05:10:00,
2013-02-05 00:15:00,33.3,14.2,28.91,NNE,28,0.0,0.0,45,0.00,,---,0.00,VWS V14.00,2013-02-05 05:15:00,
2013-02-05 00:20:00,33.3,14.2,28.91,NNE,28,0.0,0.0,45,0.00,,---,0.00,VWS V14.00,2013-02-05 05:20:00,
2013-02-05 00:25:00,33.1,14.1,28.91,NNE,28,0.0,0.0,45,0.00,,---,0.00,VWS V14.00,2013-02-05 05:25:00,
2013-02-05 00:30:00,33.1,14.1,28.91,NNE,28,0.0,0.0,45,0.00,,---,0.00,VWS V14.00,2013-02-05 05:30:00,
2013-02-05 00:35:00,32.7,13.8,28.91,NNE,28,0.0,0.0,45,0.00,,---,0.00,VWS V14.00,2013-02-05 05:35:00,
2013-02-05 00:40:00,32.4,13.4,28.91,NNE,28,0.0,0.0,45,0.00,,---,0.00,VWS V14.00,2013-02-05 05:40:00,
2013-02-05 00:41:00,32.2,13.3,28.91,NNE,28,0.0,0.0,45,0.00,,---,0.00,VWS V14.00,2013-02-05 05:41:00,
2013-02-05 00:45:00,32.2,13.3,28.91,NNE,28,0.0,0.0,45,0.00,,---,0.00,VWS V14.00,2013-02-05 05:45:00,
2013-02-05 00:46:00,32.0,13.1,28.91,NNE,28,0.0,0.0,45,0.00,,---,0.00,VWS V14.00,2013-02-05 05:46:00,
2013-02-05 00:50:00,32.0,13.1,28.91,NNE,28,0.0,0.0,45,0.00,,---,0.00,VWS V14.00,2013-02-05 05:50:00,
2013-02-05 00:51:00,32.0,13.1,28.91,NNE,28,0.0,0.0,45,0.00,,---,0.00,VWS V14.00,2013-02-05 05:51:00,
2013-02-05 00:55:00,31.8,12.9,28.91,NNE,28,0.0,0.0,45,0.00,,---,0.00,VWS V14.00,2013-02-05 05:55:00,
2013-02-05 00:56:00,31.8,12.9,28.91,NNE,28,0.0,0.0,45,0.00,,---,0.00,VWS V14.00,2013-02-05 05:56:00,
2013-02-05 01:00:00,31.7,12.8,28.91,NNE,28,0.0,0.0,45,0.00,,---,0.00,VWS V14.00,2013-02-05 06:00:00,
2013-02-05 01:01:00,31.7,12.8,28.91,NNE,28,0.0,0.0,45,0.00,,---,0.00,VWS V14.00,2013-02-05 06:01:00,
2013-02-05 01:05:00,31.5,12.6,28.91,NNE,28,0.0,0.0,45,0.00,,---,0.00,VWS V14.00,2013-02-05 06:05:00,
2013-02-05 01:06:00,31.5,12.6,28.91,NNE,28,0.0,0.0,45,0.00,,---,0.00,VWS V14.00,2013-02-05 06:06:00,
2013-02-05 01:10:00,31.3,12.4,28.91,NNE,28,0.0,0.0,45,0.00,,---,0.00,VWS V14.00,2013-02-05 06:10:00,
2013-02-05 01:11:00,31.3,12.4,28.91,NNE,28,0.0,0.0,45,0.00,,---,0.00,VWS V14.00,2013-02-05 06:11:00,
2013-02-05 01:15:00,31.1,12.3,28.91,NNE,28,0.0,0.0,45,0.00,,---,0.00,VWS V14.00,2013-02-05 06:15:00,
2013-02-05 01:16:00,31.1,12.3,28.91,NNE,28,0.0,0.0,45,0.00,,---,0.00,VWS V14.00,2013-02-05 06:16:00,
2013-02-05 01:20:00,30.9,12.1,28.91,NNE,28,0.0,0.0,45,0.00,,---,0.00,VWS V14.00,2013-02-05 06:20:00,
2013-02-05 01:21:00,30.9,12.1,28.91,NNE,28,0.0,0.0,45,0.00,,---,0.00,VWS V14.00,2013-02-05 06:21:00,
2013-02-05 01:25:00,30.8,11.9,28.91,NNE,28,0.0,0.0,45,0.00,,---,0.00,VWS V14.00,2013-02-05 06:25:00,
2013-02-05 01:26:00,30.8,11.9,28.91,NNE,28,0.0,0.0,45,0.00,,---,0.00,VWS V14.00,2013-02-05 06:26:00,
2013-02-05 01:30:00,30.6,11.8,28.91,NNE,28,0.0,0.0,45,0.00,,---,0.00,VWS V14.00,2013-02-05 06:30:00,
2013-02-05 01:31:00,30.6,11.8,28.91,NNE,28,0.0,0.0,45,0.00,,---,0.00,VWS V14.00,2013-02-05 06:31:00,
2013-02-05 01:35:00,30.6,11.8,28.91,NNE,28,0.0,0.0,45,0.00,,---,0.00,VWS V14.00,2013-02-05 06:35:00,
2013-02-05 01:36:00,30.6,11.8,28.91,NNE,28,0.0,0.0,45,0.00,,---,0.00,VWS V14.00,2013-02-05 06:36:00,
2013-02-05 01:40:00,30.2,12.9,28.91,NNE,28,0.0,0.0,48,0.00,,---,0.00,VWS V14.00,2013-02-05 06:40:00,
2013-02-05 01:41:00,30.2,12.9,28.91,NNE,28,0.0,0.0,48,0.00,,---,0.00,VWS V14.00,2013-02-05 06:41:00,
2013-02-05 01:46:00,30.0,12.7,28.91,NNE,28,0.0,0.0,48,0.00,,---,0.00,VWS V14.00,2013-02-05 06:46:00,
2013-02-05 01:51:00,30.0,12.7,28.91,NNE,28,0.0,0.0,48,0.00,,---,0.00,VWS V14.00,2013-02-05 06:51:00,
2013-02-05 01:56:00,29.9,12.6,28.91,NNE,28,0.0,0.0,48,0.00,,---,0.00,VWS V14.00,2013-02-05 06:56:00,
2013-02-05 02:01:00,29.7,12.4,28.91,NNE,28,0.0,0.0,48,0.00,,---,0.00,VWS V14.00,2013-02-05 07:01:00,
2013-02-05 02:06:00,29.5,12.2,28.91,NNE,28,0.0,0.0,48,0.00,,---,0.00,VWS V14.00,2013-02-05 07:06:00,
2013-02-05 02:11:00,29.5,12.2,28.91,NNE,28,0.0,0.0,48,0.00,,---,0.00,VWS V14.00,2013-02-05 07:11:00,
2013-02-05 02:16:00,29.3,12.1,28.91,NNE,28,0.0,0.0,48,0.00,,---,0.00,VWS V14.00,2013-02-05 07:16:00,
2013-02-05 02:21:00,29.3,12.1,28.91,NNE,28,0.0,0.0,48,0.00,,---,0.00,VWS V14.00,2013-02-05 07:21:00,
2013-02-05 02:22:00,29.3,12.1,28.91,NNE,28,0.0,0.0,48,0.00,,---,0.00,VWS V14.00,2013-02-05 07:22:00,
2013-02-05 02:26:00,29.3,12.1,28.91,NNE,28,0.0,0.0,48,0.00,,---,0.00,VWS V14.00,2013-02-05 07:26:00,
2013-02-05 02:27:00,29.3,12.1,28.91,NNE,28,0.0,0.0,48,0.00,,---,0.00,VWS V14.00,2013-02-05 07:27:00,
2013-02-05 02:31:00,29.3,12.1,28.91,NNE,28,0.0,0.0,48,0.00,,---,0.00,VWS V14.00,2013-02-05 07:31:00,
2013-02-05 02:32:00,29.3,12.1,28.91,NNE,28,0.0,0.0,48,0.00,,---,0.00,VWS V14.00,2013-02-05 07:32:00,
2013-02-05 02:36:00,29.1,11.9,28.91,NNE,28,0.0,0.0,48,0.00,,---,0.00,VWS V14.00,2013-02-05 07:36:00,
2013-02-05 02:37:00,29.1,11.9,28.91,NNE,28,0.0,0.0,48,0.00,,---,0.00,VWS V14.00,2013-02-05 07:37:00,
2013-02-05 02:41:00,29.1,11.9,28.91,NNE,28,0.0,0.0,48,0.00,,---,0.00,VWS V14.00,2013-02-05 07:41:00,
2013-02-05 02:42:00,29.1,11.9,28.91,NNE,28,0.0,0.0,48,0.00,,---,0.00,VWS V14.00,2013-02-05 07:42:00,
2013-02-05 02:46:00,29.1,11.9,28.88,NNE,28,0.0,0.0,48,0.00,,---,0.00,VWS V14.00,2013-02-05 07:46:00,
2013-02-05 02:47:00,29.1,11.9,28.88,NNE,28,0.0,0.0,48,0.00,,---,0.00,VWS V14.00,2013-02-05 07:47:00,
2013-02-05 02:51:00,29.1,11.9,28.88,NNE,28,0.0,0.0,48,0.00,,---,0.00,VWS V14.00,2013-02-05 07:51:00,
2013-02-05 02:52:00,29.1,11.9,28.88,NNE,28,0.0,0.0,48,0.00,,---,0.00,VWS V14.00,2013-02-05 07:52:00,
2013-02-05 02:56:00,29.1,11.9,28.88,NNE,28,0.0,0.0,48,0.00,,---,0.00,VWS V14.00,2013-02-05 07:56:00,
2013-02-05 02:57:00,29.1,11.9,28.88,NNE,28,0.0,0.0,48,0.00,,---,0.00,VWS V14.00,2013-02-05 07:57:00,
2013-02-05 03:01:00,29.0,11.7,28.88,NNE,28,0.0,0.0,48,0.00,,---,0.00,VWS V14.00,2013-02-05 08:01:00,
2013-02-05 03:02:00,29.0,11.7,28.88,NNE,28,0.0,0.0,48,0.00,,---,0.00,VWS V14.00,2013-02-05 08:02:00,
2013-02-05 03:06:00,29.0,11.7,28.88,NNE,28,0.0,0.0,48,0.00,,---,0.00,VWS V14.00,2013-02-05 08:06:00,
2013-02-05 03:07:00,29.0,11.7,28.88,NNE,28,0.0,0.0,48,0.00,,---,0.00,VWS V14.00,2013-02-05 08:07:00,
2013-02-05 03:11:00,29.0,11.7,28.88,NNE,28,0.0,0.0,48,0.00,,---,0.00,VWS V14.00,2013-02-05 08:11:00,
2013-02-05 03:12:00,29.0,11.7,28.88,NNE,28,0.0,0.0,48,0.00,,---,0.00,VWS V14.00,2013-02-05 08:12:00,
2013-02-05 03:16:00,28.8,11.6,28.88,NNE,28,0.0,0.0,48,0.00,,---,0.00,VWS V14.00,2013-02-05 08:16:00,
2013-02-05 03:17:00,28.8,14.2,28.88,NNE,28,0.0,0.0,54,0.00,,---,0.00,VWS V14.00,2013-02-05 08:17:00,
2013-02-05 03:21:00,28.8,14.2,28.88,NNE,28,0.0,0.0,54,0.00,,---,0.00,VWS V14.00,2013-02-05 08:21:00,
2013-02-05 03:22:00,28.8,14.2,28.88,NNE,28,0.0,0.0,54,0.00,,---,0.00,VWS V14.00,2013-02-05 08:22:00,
2013-02-05 03:26:00,28.8,14.2,28.88,NNE,28,0.0,0.0,54,0.00,,---,0.00,VWS V14.00,2013-02-05 08:26:00,
2013-02-05 03:27:00,28.8,14.2,28.88,NNE,28,0.0,0.0,54,0.00,,---,0.00,VWS V14.00,2013-02-05 08:27:00,
2013-02-05 03:31:00,28.8,14.2,28.88,NNE,28,0.0,0.0,54,0.00,,---,0.00,VWS V14.00,2013-02-05 08:31:00,
2013-02-05 03:32:00,28.8,14.2,28.88,NNE,28,0.0,0.0,54,0.00,,---,0.00,VWS V14.00,2013-02-05 08:32:00,
2013-02-05 03:37:00,28.8,14.2,28.88,NNE,28,0.0,0.0,54,0.00,,---,0.00,VWS V14.00,2013-02-05 08:37:00,
2013-02-05 03:42:00,28.8,14.2,28.88,NNE,28,0.0,0.0,54,0.00,,---,0.00,VWS V14.00,2013-02-05 08:42:00,
2013-02-05 03:43:00,28.8,14.2,28.88,NNE,28,0.0,0.0,54,0.00,,---,0.00,VWS V14.00,2013-02-05 08:43:00,
2013-02-05 03:47:00,28.8,14.2,28.88,NNE,28,0.0,0.0,54,0.00,,---,0.00,VWS V14.00,2013-02-05 08:47:00,
2013-02-05 03:48:00,28.8,14.2,28.88,NNE,28,0.0,0.0,54,0.00,,---,0.00,VWS V14.00,2013-02-05 08:48:00,
2013-02-05 03:52:00,28.8,14.2,28.88,NNE,28,0.0,0.0,54,0.00,,---,0.00,VWS V14.00,2013-02-05 08:52:00,
2013-02-05 03:53:00,28.8,14.2,28.88,NNE,28,0.0,0.0,54,0.00,,---,0.00,VWS V14.00,2013-02-05 08:53:00,
2013-02-05 03:57:00,28.8,14.2,28.88,NNE,28,0.0,0.0,54,0.00,,---,0.00,VWS V14.00,2013-02-05 08:57:00,
2013-02-05 03:58:00,28.8,14.2,28.88,NNE,28,0.0,0.0,54,0.00,,---,0.00,VWS V14.00,2013-02-05 08:58:00,
2013-02-05 04:02:00,29.0,14.4,28.88,NNE,28,0.0,0.0,54,0.00,,---,0.00,VWS V14.00,2013-02-05 09:02:00,
2013-02-05 04:03:00,29.0,14.4,28.88,NNE,28,0.0,0.0,54,0.00,,---,0.00,VWS V14.00,2013-02-05 09:03:00,
2013-02-05 04:07:00,29.0,14.4,28.88,NNE,28,0.0,0.0,54,0.00,,---,0.00,VWS V14.00,2013-02-05 09:07:00,
2013-02-05 04:08:00,29.0,14.4,28.88,NNE,28,0.0,0.0,54,0.00,,---,0.00,VWS V14.00,2013-02-05 09:08:00,
2013-02-05 04:12:00,29.1,14.6,28.88,NNE,28,0.0,0.0,54,0.00,,---,0.00,VWS V14.00,2013-02-05 09:12:00,
2013-02-05 04:13:00,29.1,14.6,28.85,NNE,28,0.0,0.0,54,0.00,,---,0.00,VWS V14.00,2013-02-05 09:13:00,
2013-02-05 04:17:00,29.1,14.6,28.85,NNE,28,0.0,0.0,54,0.00,,---,0.00,VWS V14.00,2013-02-05 09:17:00,
2013-02-05 04:18:00,29.1,14.6,28.85,NNE,28,0.0,0.0,54,0.00,,---,0.00,VWS V14.00,2013-02-05 09:18:00,
2013-02-05 04:22:00,29.3,14.8,28.85,NNE,28,0.0,0.0,54,0.00,,---,0.00,VWS V14.00,2013-02-05 09:22:00,
2013-02-05 04:23:00,29.3,14.8,28.85,NNE,28,0.0,0.0,54,0.00,,---,0.00,VWS V14.00,2013-02-05 09:23:00,
2013-02-05 04:27:00,29.5,14.9,28.85,NNE,28,0.0,0.0,54,0.00,,---,0.00,VWS V14.00,2013-02-05 09:27:00,
2013-02-05 04:28:00,29.5,14.9,28.88,NNE,28,0.0,0.0,54,0.00,,---,0.00,VWS V14.00,2013-02-05 09:28:00,
2013-02-05 04:32:00,29.5,14.9,28.88,NNE,28,0.0,0.0,54,0.00,,---,0.00,VWS V14.00,2013-02-05 09:32:00,
2013-02-05 04:33:00,29.5,14.9,28.88,NNE,28,0.0,0.0,54,0.00,,---,0.00,VWS V14.00,2013-02-05 09:33:00,
2013-02-05 04:37:00,29.5,14.9,28.88,NNE,28,0.0,0.0,54,0.00,,---,0.00,VWS V14.00,2013-02-05 09:37:00,
2013-02-05 04:38:00,29.5,14.9,28.88,NNE,28,0.0,0.0,54,0.00,,---,0.00,VWS V14.00,2013-02-05 09:38:00,
2013-02-05 04:42:00,29.5,14.9,28.88,NNE,28,0.0,0.0,54,0.00,,---,0.00,VWS V14.00,2013-02-05 09:42:00,
2013-02-05 04:43:00,29.5,14.9,28.88,NNE,28,0.0,0.0,54,0.00,,---,0.00,VWS V14.00,2013-02-05 09:43:00,
2013-02-05 04:47:00,29.5,14.9,28.88,NNE,28,0.0,0.0,54,0.00,,---,0.00,VWS V14.00,2013-02-05 09:47:00,
2013-02-05 04:48:00,29.5,14.9,28.88,NNE,28,0.0,0.0,54,0.00,,---,0.00,VWS V14.00,2013-02-05 09:48:00,
2013-02-05 04:49:00,29.5,14.9,28.88,NNE,28,0.0,0.0,54,0.00,,---,0.00,VWS V14.00,2013-02-05 09:49:00,
2013-02-05 04:52:00,29.5,14.9,28.88,NNE,28,0.0,0.0,54,0.00,,---,0.00,VWS V14.00,2013-02-05 09:52:00,
2013-02-05 04:53:00,29.5,14.9,28.88,NNE,28,0.0,0.0,54,0.00,,---,0.00,VWS V14.00,2013-02-05 09:53:00,
2013-02-05 04:54:00,29.5,14.9,28.88,NNE,28,0.0,0.0,54,0.00,,---,0.00,VWS V14.00,2013-02-05 09:54:00,
2013-02-05 04:58:00,29.5,14.9,28.88,NNE,28,0.0,0.0,54,0.00,,---,0.00,VWS V14.00,2013-02-05 09:58:00,
2013-02-05 04:59:00,29.5,14.9,28.88,NNE,28,0.0,0.0,54,0.00,,---,0.00,VWS V14.00,2013-02-05 09:59:00,
2013-02-05 05:03:00,29.7,15.1,28.88,NNE,28,0.0,0.0,54,0.00,,---,0.00,VWS V14.00,2013-02-05 10:03:00,
2013-02-05 05:04:00,29.7,15.1,28.88,NNE,28,0.0,0.0,54,0.00,,---,0.00,VWS V14.00,2013-02-05 10:04:00,
2013-02-05 05:08:00,29.7,15.1,28.88,NNE,28,0.0,0.0,54,0.00,,---,0.00,VWS V14.00,2013-02-05 10:08:00,
2013-02-05 05:09:00,29.7,15.1,28.88,NNE,28,0.0,0.0,54,0.00,,---,0.00,VWS V14.00,2013-02-05 10:09:00,
2013-02-05 05:13:00,29.5,14.9,28.88,NNE,28,0.0,0.0,54,0.00,,---,0.00,VWS V14.00,2013-02-05 10:13:00,
2013-02-05 05:14:00,29.5,14.9,28.88,NNE,28,0.0,0.0,54,0.00,,---,0.00,VWS V14.00,2013-02-05 10:14:00,
2013-02-05 05:18:00,29.5,14.9,28.88,NNE,28,0.0,0.0,54,0.00,,---,0.00,VWS V14.00,2013-02-05 10:18:00,
2013-02-05 05:19:00,29.5,14.9,28.88,NNE,28,0.0,0.0,54,0.00,,---,0.00,VWS V14.00,2013-02-05 10:19:00,
2013-02-05 05:23:00,29.7,15.1,28.88,NNE,28,0.0,0.0,54,0.00,,---,0.00,VWS V14.00,2013-02-05 10:23:00,
2013-02-05 05:24:00,29.7,15.1,28.88,NNE,28,0.0,0.0,54,0.00,,---,0.00,VWS V14.00,2013-02-05 10:24:00,
2013-02-05 05:28:00,29.9,18.8,28.88,NNE,28,0.0,0.0,63,0.00,,---,0.00,VWS V14.00,2013-02-05 10:28:00,
2013-02-05 05:29:00,29.9,18.8,28.88,NNE,28,0.0,0.0,63,0.00,,---,0.00,VWS V14.00,2013-02-05 10:29:00,
2013-02-05 05:33:00,29.9,18.8,28.88,NNE,28,0.0,0.0,63,0.00,,---,0.00,VWS V14.00,2013-02-05 10:33:00,
2013-02-05 05:34:00,29.9,18.8,28.88,NNE,28,0.0,0.0,63,0.00,,---,0.00,VWS V14.00,2013-02-05 10:34:00,
2013-02-05 05:38:00,30.0,19.0,28.88,NNE,28,0.0,0.0,63,0.00,,---,0.00,VWS V14.00,2013-02-05 10:38:00,
2013-02-05 05:39:00,30.0,19.0,28.88,NNE,28,0.0,0.0,63,0.00,,---,0.00,VWS V14.00,2013-02-05 10:39:00,
2013-02-05 05:43:00,30.0,19.0,28.88,NNE,28,0.0,0.0,63,0.00,,---,0.00,VWS V14.00,2013-02-05 10:43:00,
2013-02-05 05:44:00,30.2,19.2,28.88,NNE,28,0.0,0.0,63,0.00,,---,0.00,VWS V14.00,2013-02-05 10:44:00,
2013-02-05 05:48:00,30.2,19.2,28.88,NNE,28,0.0,0.0,63,0.00,,---,0.00,VWS V14.00,2013-02-05 10:48:00,
2013-02-05 05:49:00,30.2,19.2,28.88,NNE,28,0.0,0.0,63,0.00,,---,0.00,VWS V14.00,2013-02-05 10:49:00,
2013-02-05 05:53:00,30.2,19.2,28.88,NNE,28,0.0,0.0,63,0.00,,---,0.00,VWS V14.00,2013-02-05 10:53:00,
2013-02-05 05:54:00,30.2,19.2,28.88,NNE,28,0.0,0.0,63,0.00,,---,0.00,VWS V14.00,2013-02-05 10:54:00,
2013-02-05 05:58:00,30.4,19.3,28.88,NNE,28,0.0,0.0,63,0.00,,---,0.00,VWS V14.00,2013-02-05 10:58:00,
2013-02-05 05:59:00,30.4,19.3,28.88,NNE,28,0.0,0.0,63,0.00,,---,0.00,VWS V14.00,2013-02-05 10:59:00,
2013-02-05 06:03:00,30.6,18.4,28.88,NNE,28,0.0,0.0,60,0.00,,---,0.00,VWS V14.00,2013-02-05 11:03:00,
2013-02-05 06:04:00,30.6,18.4,28.88,NNE,28,0.0,0.0,60,0.00,,---,0.00,VWS V14.00,2013-02-05 11:04:00,
2013-02-05 06:08:00,30.6,18.4,28.88,NNE,28,0.0,0.0,60,0.00,,---,0.00,VWS V14.00,2013-02-05 11:08:00,
2013-02-05 06:09:00,30.6,18.4,28.88,NNE,28,0.0,0.0,60,0.00,,---,0.00,VWS V14.00,2013-02-05 11:09:00,
2013-02-05 06:13:00,30.8,18.5,28.88,NNE,28,0.0,0.0,60,0.00,,---,0.00,VWS V14.00,2013-02-05 11:13:00,
2013-02-05 06:14:00,30.8,18.5,28.88,NNE,28,0.0,0.0,60,0.00,,---,0.00,VWS V14.00,2013-02-05 11:14:00,
2013-02-05 06:18:00,30.9,18.7,28.88,NNE,28,0.0,0.0,60,0.00,,---,0.00,VWS V14.00,2013-02-05 11:18:00,
2013-02-05 06:19:00,30.9,18.7,28.88,NNE,28,0.0,0.0,60,0.00,,---,0.00,VWS V14.00,2013-02-05 11:19:00,
2013-02-05 06:23:00,31.1,18.9,28.88,NNE,28,0.0,0.0,60,0.00,,---,0.00,VWS V14.00,2013-02-05 11:23:00,
2013-02-05 06:24:00,31.1,18.9,28.88,NNE,28,0.0,0.0,60,0.00,,---,0.00,VWS V14.00,2013-02-05 11:24:00,
2013-02-05 06:28:00,31.3,19.0,28.91,NNE,28,0.0,0.0,60,0.00,,---,0.00,VWS V14.00,2013-02-05 11:28:00,
2013-02-05 06:29:00,31.3,19.0,28.91,NNE,28,0.0,0.0,60,0.00,,---,0.00,VWS V14.00,2013-02-05 11:29:00,
2013-02-05 06:33:00,31.5,19.2,28.91,NNE,28,0.0,0.0,60,0.00,,---,0.00,VWS V14.00,2013-02-05 11:33:00,
2013-02-05 06:34:00,31.5,19.2,28.91,NNE,28,0.0,0.0,60,0.00,,---,0.00,VWS V14.00,2013-02-05 11:34:00,
2013-02-05 06:38:00,31.5,19.2,28.91,NNE,28,0.0,0.0,60,0.00,,---,0.00,VWS V14.00,2013-02-05 11:38:00,
2013-02-05 06:39:00,31.5,19.2,28.91,NNE,28,0.0,0.0,60,0.00,,---,0.00,VWS V14.00,2013-02-05 11:39:00,
2013-02-05 06:43:00,31.7,19.4,28.91,NNE,28,0.0,0.0,60,0.00,,---,0.00,VWS V14.00,2013-02-05 11:43:00,
2013-02-05 06:44:00,31.7,19.4,28.91,NNE,28,0.0,0.0,60,0.00,,---,0.00,VWS V14.00,2013-02-05 11:44:00,
2013-02-05 06:48:00,31.8,19.5,28.91,NNE,28,0.0,0.0,60,0.00,,---,0.00,VWS V14.00,2013-02-05 11:48:00,
2013-02-05 06:49:00,31.8,19.5,28.91,NNE,28,0.0,0.0,60,0.00,,---,0.00,VWS V14.00,2013-02-05 11:49:00,
2013-02-05 06:54:00,31.8,19.5,28.91,NNE,28,0.0,0.0,60,0.00,,---,0.00,VWS V14.00,2013-02-05 11:54:00,
2013-02-05 06:59:00,32.0,23.0,28.91,NNE,28,0.0,0.0,69,0.00,,---,0.00,VWS V14.00,2013-02-05 11:59:00,
2013-02-05 07:04:00,32.2,23.2,28.91,NNE,28,0.0,0.0,69,0.00,,---,0.00,VWS V14.00,2013-02-05 12:04:00,
2013-02-05 07:09:00,32.2,23.2,28.91,NNE,28,0.0,0.0,69,0.00,,---,0.00,VWS V14.00,2013-02-05 12:09:00,
2013-02-05 07:10:00,32.2,23.2,28.91,NNE,28,0.0,0.0,69,0.00,,---,0.00,VWS V14.00,2013-02-05 12:10:00,
2013-02-05 07:14:00,32.4,23.4,28.91,NNE,28,0.0,0.0,69,0.00,,---,0.00,VWS V14.00,2013-02-05 12:14:00,
2013-02-05 07:15:00,32.6,23.5,28.91,NNE,28,0.0,0.0,69,0.00,,---,0.00,VWS V14.00,2013-02-05 12:15:00,
2013-02-05 07:19:00,32.6,23.5,28.91,NNE,28,0.0,0.0,69,0.00,,---,0.00,VWS V14.00,2013-02-05 12:19:00,
2013-02-05 07:20:00,32.6,23.5,28.91,NNE,28,0.0,0.0,69,0.00,,---,0.00,VWS V14.00,2013-02-05 12:20:00,
2013-02-05 07:24:00,32.7,23.7,28.91,NNE,28,0.0,0.0,69,0.00,,---,0.00,VWS V14.00,2013-02-05 12:24:00,
2013-02-05 07:25:00,32.7,23.7,28.91,NNE,28,0.0,0.0,69,0.00,,---,0.00,VWS V14.00,2013-02-05 12:25:00,
2013-02-05 07:29:00,32.9,23.9,28.91,NNE,28,0.0,0.0,69,0.00,,---,0.00,VWS V14.00,2013-02-05 12:29:00,
2013-02-05 07:30:00,32.9,23.9,28.91,NNE,28,0.0,0.0,69,0.00,,---,0.00,VWS V14.00,2013-02-05 12:30:00,
2013-02-05 07:34:00,33.1,24.0,28.91,NNE,28,0.0,0.0,69,0.00,,---,0.00,VWS V14.00,2013-02-05 12:34:00,
2013-02-05 07:35:00,33.1,24.0,28.91,NNE,28,0.0,0.0,69,0.00,,---,0.00,VWS V14.00,2013-02-05 12:35:00,
2013-02-05 07:39:00,33.1,24.0,28.91,NNE,28,0.0,0.0,69,0.00,,---,0.00,VWS V14.00,2013-02-05 12:39:00,
2013-02-05 07:40:00,33.1,24.0,28.91,NNE,28,0.0,0.0,69,0.00,,---,0.00,VWS V14.00,2013-02-05 12:40:00,
2013-02-05 07:44:00,33.3,24.2,28.94,NNE,28,0.0,0.0,69,0.00,,---,0.00,VWS V14.00,2013-02-05 12:44:00,
2013-02-05 07:45:00,33.3,24.2,28.94,NNE,28,0.0,0.0,69,0.00,,---,0.00,VWS V14.00,2013-02-05 12:45:00,
2013-02-05 07:49:00,33.3,24.2,28.94,NNE,28,0.0,0.0,69,0.00,,---,0.00,VWS V14.00,2013-02-05 12:49:00,
2013-02-05 07:50:00,33.5,24.4,28.94,NNE,28,0.0,0.0,69,0.00,,---,0.00,VWS V14.00,2013-02-05 12:50:00,
2013-02-05 07:54:00,33.5,24.4,28.94,NNE,28,0.0,0.0,69,0.00,,---,0.00,VWS V14.00,2013-02-05 12:54:00,
2013-02-05 07:55:00,33.6,24.6,28.94,NNE,28,0.0,0.0,69,0.00,,---,0.00,VWS V14.00,2013-02-05 12:55:00,
2013-02-05 07:59:00,33.6,24.6,28.94,NNE,28,0.0,0.0,69,0.00,,---,0.00,VWS V14.00,2013-02-05 12:59:00,
2013-02-05 08:00:00,33.6,24.6,28.94,NNE,28,0.0,0.0,69,0.00,,---,0.00,VWS V14.00,2013-02-05 13:00:00,
2013-02-05 08:04:00,33.8,24.7,28.94,NNE,28,0.0,0.0,69,0.00,,---,0.00,VWS V14.00,2013-02-05 13:04:00,
2013-02-05 08:05:00,33.8,24.7,28.94,NNE,28,0.0,0.0,69,0.00,,---,0.00,VWS V14.00,2013-02-05 13:05:00,
2013-02-05 08:09:00,34.0,24.9,28.94,NNE,28,0.0,0.0,69,0.00,,---,0.00,VWS V14.00,2013-02-05 13:09:00,
2013-02-05 08:10:00,34.0,24.9,28.94,NNE,28,0.0,0.0,69,0.00,,---,0.00,VWS V14.00,2013-02-05 13:10:00,
2013-02-05 08:14:00,34.2,25.1,28.94,NNE,28,0.0,0.0,69,0.00,,---,0.00,VWS V14.00,2013-02-05 13:14:00,
2013-02-05 08:15:00,34.2,25.1,28.94,NNE,28,0.0,0.0,69,0.00,,---,0.00,VWS V14.00,2013-02-05 13:15:00,
2013-02-05 08:19:00,34.2,25.1,28.94,NNE,28,0.0,0.0,69,0.00,,---,0.00,VWS V14.00,2013-02-05 13:19:00,
2013-02-05 08:20:00,34.2,25.1,28.94,NNE,28,0.0,0.0,69,0.00,,---,0.00,VWS V14.00,2013-02-05 13:20:00,
2013-02-05 08:24:00,34.2,25.1,28.94,NNE,28,0.0,0.0,69,0.00,,---,0.00,VWS V14.00,2013-02-05 13:24:00,
2013-02-05 08:25:00,34.4,25.3,28.94,NNE,28,0.0,0.0,69,0.00,,---,0.00,VWS V14.00,2013-02-05 13:25:00,
2013-02-05 08:29:00,34.5,25.4,28.94,NNE,28,0.0,0.0,69,0.00,,---,0.00,VWS V14.00,2013-02-05 13:29:00,
2013-02-05 08:30:00,34.5,25.4,28.94,NNE,28,0.0,0.0,69,0.00,,---,0.00,VWS V14.00,2013-02-05 13:30:00,
2013-02-05 08:34:00,34.5,25.4,28.94,NNE,28,0.0,0.0,69,0.00,,---,0.00,VWS V14.00,2013-02-05 13:34:00,
2013-02-05 08:35:00,34.5,25.4,28.94,NNE,28,0.0,0.0,69,0.00,,---,0.00,VWS V14.00,2013-02-05 13:35:00,
2013-02-05 08:36:00,34.7,25.6,28.94,NNE,28,0.0,0.0,69,0.00,,---,0.00,VWS V14.00,2013-02-05 13:36:00,
2013-02-05 08:40:00,34.7,25.6,28.94,NNE,28,0.0,0.0,69,0.00,,---,0.00,VWS V14.00,2013-02-05 13:40:00,
2013-02-05 08:41:00,34.7,25.6,28.94,NE,42,0.0,0.0,69,0.00,,---,0.00,VWS V14.00,2013-02-05 13:41:00,
2013-02-05 08:45:00,34.9,25.8,28.91,SE,138,0.0,0.0,69,0.00,,---,0.00,VWS V14.00,2013-02-05 13:45:00,
2013-02-05 08:46:00,34.9,25.8,28.91,SE,138,0.0,0.0,69,0.00,,---,0.00,VWS V14.00,2013-02-05 13:46:00,
2013-02-05 08:50:00,35.3,26.1,28.91,SE,138,0.0,0.0,69,0.00,,---,0.00,VWS V14.00,2013-02-05 13:50:00,
2013-02-05 08:51:00,35.3,26.1,28.91,SE,138,0.0,0.0,69,0.00,,---,0.00,VWS V14.00,2013-02-05 13:51:00,
2013-02-05 08:55:00,35.4,26.3,28.91,SE,138,0.0,0.0,69,0.00,,---,0.00,VWS V14.00,2013-02-05 13:55:00,
2013-02-05 08:56:00,35.4,26.3,28.91,SE,138,0.0,0.0,69,0.00,,---,0.00,VWS V14.00,2013-02-05 13:56:00,
2013-02-05 09:00:00,35.6,26.5,28.94,SE,138,0.0,0.0,69,0.00,,---,0.00,VWS V14.00,2013-02-05 14:00:00,
2013-02-05 09:01:00,35.6,26.5,28.94,SE,139,0.0,0.0,69,0.00,,---,0.00,VWS V14.00,2013-02-05 14:01:00,
2013-02-05 09:05:00,35.8,25.6,28.94,SE,139,0.0,0.0,66,0.00,,---,0.00,VWS V14.00,2013-02-05 14:05:00,
2013-02-05 09:06:00,35.8,25.6,28.94,SE,138,0.0,0.0,66,0.00,,---,0.00,VWS V14.00,2013-02-05 14:06:00,
2013-02-05 09:10:00,36.0,25.7,28.94,SE,138,0.0,0.0,66,0.00,,---,0.00,VWS V14.00,2013-02-05 14:10:00,
2013-02-05 09:11:00,36.0,25.7,28.94,SE,138,0.0,0.0,66,0.00,,---,0.00,VWS V14.00,2013-02-05 14:11:00,
2013-02-05 09:15:00,36.2,25.9,28.94,SE,138,0.0,0.0,66,0.00,,---,0.00,VWS V14.00,2013-02-05 14:15:00,
2013-02-05 09:16:00,36.2,25.9,28.94,SE,138,0.0,0.0,66,0.00,,---,0.00,VWS V14.00,2013-02-05 14:16:00,
2013-02-05 09:20:00,36.3,26.1,28.94,SE,138,0.0,0.0,66,0.00,,---,0.00,VWS V14.00,2013-02-05 14:20:00,
2013-02-05 09:21:00,36.3,26.1,28.94,SE,139,0.0,0.0,66,0.00,,---,0.00,VWS V14.00,2013-02-05 14:21:00,
2013-02-05 09:25:00,36.5,26.3,28.94,SE,138,0.0,0.0,66,0.00,,---,0.00,VWS V14.00,2013-02-05 14:25:00,
2013-02-05 09:26:00,36.5,26.3,28.94,SE,139,0.0,0.0,66,0.00,,---,0.00,VWS V14.00,2013-02-05 14:26:00,
2013-02-05 09:30:00,36.7,26.4,28.94,SE,138,0.0,0.0,66,0.00,,---,0.00,VWS V14.00,2013-02-05 14:30:00,
2013-02-05 09:31:00,36.7,26.4,28.94,SE,138,0.0,0.0,66,0.00,,---,0.00,VWS V14.00,2013-02-05 14:31:00,
2013-02-05 09:35:00,36.9,26.6,28.94,SE,139,0.0,0.0,66,0.00,,---,0.00,VWS V14.00,2013-02-05 14:35:00,
2013-02-05 09:36:00,36.9,26.6,28.94,SE,138,0.0,0.0,66,0.00,,---,0.00,VWS V14.00,2013-02-05 14:36:00,
2013-02-05 09:40:00,37.1,26.8,28.94,SE,138,0.0,0.0,66,0.00,,---,0.00,VWS V14.00,2013-02-05 14:40:00,
2013-02-05 09:41:00,37.1,26.8,28.94,SE,138,0.0,0.0,66,0.00,,---,0.00,VWS V14.00,2013-02-05 14:41:00,
2013-02-05 09:45:00,37.4,24.8,28.94,SE,138,0.0,0.0,60,0.00,,---,0.00,VWS V14.00,2013-02-05 14:45:00,
2013-02-05 09:46:00,37.4,24.8,28.94,SE,138,0.0,0.0,60,0.00,,---,0.00,VWS V14.00,2013-02-05 14:46:00,
2013-02-05 09:50:00,37.6,23.8,28.94,SE,138,0.0,0.0,57,0.00,,---,0.00,VWS V14.00,2013-02-05 14:50:00,
2013-02-05 09:51:00,37.6,23.8,28.94,SE,138,0.0,0.0,57,0.00,,---,0.00,VWS V14.00,2013-02-05 14:51:00,
2013-02-05 09:55:00,37.8,23.9,28.94,SE,138,0.0,0.0,57,0.00,,---,0.00,VWS V14.00,2013-02-05 14:55:00,
2013-02-05 09:56:00,38.0,24.1,28.94,SE,138,0.0,0.0,57,0.00,,---,0.00,VWS V14.00,2013-02-05 14:56:00,
2013-02-05 10:00:00,38.1,24.3,28.94,SE,138,0.0,0.0,57,0.00,,---,0.00,VWS V14.00,2013-02-05 15:00:00,
2013-02-05 10:01:00,38.1,24.3,28.94,SE,138,0.0,0.0,57,0.00,,---,0.00,VWS V14.00,2013-02-05 15:01:00,
2013-02-05 10:05:00,38.3,24.4,28.94,SE,138,0.0,0.0,57,0.00,,---,0.00,VWS V14.00,2013-02-05 15:05:00,
2013-02-05 10:06:00,38.3,24.4,28.94,SE,138,0.0,0.0,57,0.00,,---,0.00,VWS V14.00,2013-02-05 15:06:00,
2013-02-05 10:10:00,38.5,22.0,28.94,SE,138,0.0,0.0,51,0.00,,---,0.00,VWS V14.00,2013-02-05 15:10:00,
2013-02-05 10:11:00,38.5,22.0,28.94,SE,138,0.0,0.0,51,0.00,,---,0.00,VWS V14.00,2013-02-05 15:11:00,
2013-02-05 10:15:00,38.9,22.3,28.94,SE,138,0.0,0.0,51,0.00,,---,0.00,VWS V14.00,2013-02-05 15:15:00,
2013-02-05 10:16:00,38.9,22.3,28.94,SE,138,0.0,0.0,51,0.00,,---,0.00,VWS V14.00,2013-02-05 15:16:00,
2013-02-05 10:20:00,39.0,22.5,28.94,SE,138,0.0,0.0,51,0.00,,---,0.00,VWS V14.00,2013-02-05 15:20:00,
2013-02-05 10:21:00,39.2,22.6,28.94,SE,138,0.0,0.0,51,0.00,,---,0.00,VWS V14.00,2013-02-05 15:21:00,
2013-02-05 10:22:00,39.2,22.6,28.94,SE,138,0.0,0.0,51,0.00,,---,0.00,VWS V14.00,2013-02-05 15:22:00,
2013-02-05 10:25:00,39.6,21.5,28.94,SE,138,0.0,0.0,48,0.00,,---,0.00,VWS V14.00,2013-02-05 15:25:00,
2013-02-05 10:26:00,39.6,21.5,28.94,SE,138,0.0,0.0,48,0.00,,---,0.00,VWS V14.00,2013-02-05 15:26:00,
2013-02-05 10:27:00,39.6,21.5,28.94,SE,138,0.0,0.0,48,0.00,,---,0.00,VWS V14.00,2013-02-05 15:27:00,
2013-02-05 10:31:00,39.9,21.9,28.94,WSW,246,0.0,0.0,48,0.00,,---,0.00,VWS V14.00,2013-02-05 15:31:00,
2013-02-05 10:32:00,39.9,21.9,28.94,WSW,246,0.0,0.0,48,0.00,,---,0.00,VWS V14.00,2013-02-05 15:32:00,
2013-02-05 10:36:00,40.1,22.0,28.94,WSW,246,0.0,0.0,48,0.00,,---,0.00,VWS V14.00,2013-02-05 15:36:00,
2013-02-05 10:37:00,40.1,22.0,28.94,West,262,0.0,0.0,48,0.00,,---,0.00,VWS V14.00,2013-02-05 15:37:00,
2013-02-05 10:41:00,40.3,22.2,28.94,West,262,0.0,0.0,48,0.00,,---,0.00,VWS V14.00,2013-02-05 15:41:00,
2013-02-05 10:42:00,40.5,22.4,28.94,West,262,0.0,0.0,48,0.00,,---,0.00,VWS V14.00,2013-02-05 15:42:00,
2013-02-05 10:46:00,40.7,22.5,28.94,West,262,0.0,0.0,48,0.00,,---,0.00,VWS V14.00,2013-02-05 15:46:00,
2013-02-05 10:47:00,40.7,22.5,28.94,West,262,0.0,0.0,48,0.00,,---,0.00,VWS V14.00,2013-02-05 15:47:00,
2013-02-05 10:51:00,41.0,22.9,28.94,West,262,0.0,0.0,48,0.00,,---,0.00,VWS V14.00,2013-02-05 15:51:00,
2013-02-05 10:52:00,41.0,22.9,28.94,West,262,0.0,0.0,48,0.00,,---,0.00,VWS V14.00,2013-02-05 15:52:00,
2013-02-05 10:56:00,41.4,23.2,28.94,West,262,0.0,0.0,48,0.00,,---,0.00,VWS V14.00,2013-02-05 15:56:00,
2013-02-05 10:57:00,41.4,23.2,28.94,West,262,0.0,0.0,48,0.00,,---,0.00,VWS V14.00,2013-02-05 15:57:00,
2013-02-05 11:01:00,41.9,23.7,28.94,West,262,0.0,0.0,48,0.00,,---,0.00,VWS V14.00,2013-02-05 16:01:00,
2013-02-05 11:02:00,41.9,23.7,28.94,West,262,0.0,0.0,48,0.00,,---,0.00,VWS V14.00,2013-02-05 16:02:00,
2013-02-05 11:06:00,42.3,24.0,28.94,West,281,0.0,0.0,48,0.00,,---,0.00,VWS V14.00,2013-02-05 16:06:00,
2013-02-05 11:07:00,42.5,24.2,28.94,West,281,0.0,0.0,48,0.00,,---,0.00,VWS V14.00,2013-02-05 16:07:00,
2013-02-05 11:11:00,42.6,19.4,28.94,West,281,0.0,0.0,39,0.00,,---,0.00,VWS V14.00,2013-02-05 16:11:00,
2013-02-05 11:12:00,42.8,19.6,28.94,West,281,0.0,0.0,39,0.00,,---,0.00,VWS V14.00,2013-02-05 16:12:00,
2013-02-05 11:16:00,43.2,19.9,28.94,West,273,0.0,0.0,39,0.00,,---,0.00,VWS V14.00,2013-02-05 16:16:00,
2013-02-05 11:17:00,43.2,19.9,28.94,West,273,0.0,0.0,39,0.00,,---,0.00,VWS V14.00,2013-02-05 16:17:00,
2013-02-05 11:21:00,43.4,20.1,28.94,WNW,301,2.7,2.7,39,0.00,,---,0.00,VWS V14.00,2013-02-05 16:21:00,
2013-02-05 11:22:00,43.4,20.1,28.94,NW,304,3.1,3.1,39,0.00,,---,0.00,VWS V14.00,2013-02-05 16:22:00,
2013-02-05 11:27:00,43.7,20.4,28.94,NW,319,4.0,4.0,39,0.00,,---,0.00,VWS V14.00,2013-02-05 16:27:00,
2013-02-05 11:32:00,44.1,20.7,28.94,WSW,245,0.0,0.0,39,0.00,,---,0.00,VWS V14.00,2013-02-05 16:32:00,
2013-02-05 11:37:00,44.4,21.0,28.94,NW,309,3.1,4.0,39,0.00,,---,0.00,VWS V14.00,2013-02-05 16:37:00,
2013-02-05 11:42:00,45.0,21.5,28.94,West,262,0.0,0.0,39,0.00,,---,0.00,VWS V14.00,2013-02-05 16:42:00,
2013-02-05 11:47:00,45.5,22.0,28.94,WNW,287,0.0,2.2,39,0.00,,---,0.00,VWS V14.00,2013-02-05 16:47:00,
2013-02-05 11:52:00,45.9,22.3,28.94,WSW,245,0.0,0.0,39,0.00,,---,0.00,VWS V14.00,2013-02-05 16:52:00,
2013-02-05 11:57:00,46.2,22.7,28.94,NW,317,0.0,0.0,39,0.00,,---,0.00,VWS V14.00,2013-02-05 16:57:00,
2013-02-05 12:02:00,46.4,22.8,28.94,West,278,2.7,2.7,39,0.00,,---,0.00,VWS V14.00,2013-02-05 17:02:00,
2013-02-05 12:07:00,46.6,21.1,28.94,WNW,301,0.0,0.0,36,0.00,,---,0.00,VWS V14.00,2013-02-05 17:07:00,
2013-02-05 12:12:00,47.5,27.2,28.94,NW,322,2.7,2.7,45,0.00,,---,0.00,VWS V14.00,2013-02-05 17:12:00,
2013-02-05 12:17:00,48.2,27.9,28.94,WNW,300,2.7,4.5,45,0.00,,---,0.00,VWS V14.00,2013-02-05 17:17:00,
2013-02-05 12:18:00,48.4,26.4,28.94,NW,310,2.7,4.5,42,0.00,,---,0.00,VWS V14.00,2013-02-05 17:18:00,
2013-02-05 12:22:00,48.4,26.4,28.94,West,274,2.7,4.9,42,0.00,,---,0.00,VWS V14.00,2013-02-05 17:22:00,
2013-02-05 12:23:00,48.4,26.4,28.94,NW,305,3.1,4.9,42,0.00,,---,0.00,VWS V14.00,2013-02-05 17:23:00,
2013-02-05 12:27:00,48.4,22.7,28.94,West,272,0.0,0.0,36,0.00,,---,0.00,VWS V14.00,2013-02-05 17:27:00,
2013-02-05 12:28:00,48.4,22.7,28.94,West,266,0.0,2.2,36,0.00,,---,0.00,VWS V14.00,2013-02-05 17:28:00,
2013-02-05 12:32:00,48.9,26.9,28.94,West,261,2.2,4.0,42,0.00,,---,0.00,VWS V14.00,2013-02-05 17:32:00,
2013-02-05 12:33:00,48.9,26.9,28.94,West,264,2.7,4.0,42,0.00,,---,0.00,VWS V14.00,2013-02-05 17:33:00,
2013-02-05 12:37:00,49.5,27.4,28.94,NW,307,0.0,4.9,42,0.00,,---,0.00,VWS V14.00,2013-02-05 17:37:00,
2013-02-05 12:38:00,49.5,27.4,28.94,NW,307,0.0,4.9,42,0.00,,---,0.00,VWS V14.00,2013-02-05 17:38:00,
2013-02-05 12:42:00,49.7,27.5,28.94,NW,305,2.2,4.9,42,0.00,,---,0.00,VWS V14.00,2013-02-05 17:42:00,
2013-02-05 12:43:00,49.7,27.5,28.94,NW,305,3.1,3.1,42,0.00,,---,0.00,VWS V14.00,2013-02-05 17:43:00,
2013-02-05 12:47:00,49.7,27.5,28.94,West,279,0.0,0.0,42,0.00,,---,0.00,VWS V14.00,2013-02-05 17:47:00,
2013-02-05 12:48:00,49.8,27.7,28.94,West,279,0.0,0.0,42,0.00,,---,0.00,VWS V14.00,2013-02-05 17:48:00,
2013-02-05 12:53:00,49.8,27.7,28.94,NNW,342,4.0,4.0,42,0.00,,---,0.00,VWS V14.00,2013-02-05 17:53:00,
2013-02-05 12:58:00,49.8,27.7,28.94,NNW,332,0.0,2.2,42,0.00,,---,0.00,VWS V14.00,2013-02-05 17:58:00,
2013-02-05 13:03:00,50.0,27.9,28.94,WSW,257,3.6,3.6,42,0.00,,---,0.00,VWS V14.00,2013-02-05 18:03:00,
2013-02-05 13:08:00,50.0,27.9,28.94,WSW,239,4.9,5.8,42,0.00,,---,0.00,VWS V14.00,2013-02-05 18:08:00,
2013-02-05 13:13:00,50.4,28.2,28.91,WNW,296,0.0,3.6,42,0.00,,---,0.00,VWS V14.00,2013-02-05 18:13:00,
2013-02-05 13:18:00,50.6,28.3,28.91,North,353,2.2,4.0,42,0.00,,---,0.00,VWS V14.00,2013-02-05 18:18:00,
2013-02-05 13:23:00,50.7,28.5,28.91,NW,321,2.7,2.7,42,0.00,,---,0.00,VWS V14.00,2013-02-05 18:23:00,
2013-02-05 13:28:00,50.4,28.2,28.91,WNW,298,0.0,0.0,42,0.00,,---,0.00,VWS V14.00,2013-02-05 18:28:00,
2013-02-05 13:33:00,50.6,28.3,28.91,NNW,332,3.1,3.6,42,0.00,,---,0.00,VWS V14.00,2013-02-05 18:33:00,
2013-02-05 13:38:00,50.6,28.3,28.91,NW,304,0.0,0.0,42,0.00,,---,0.00,VWS V14.00,2013-02-05 18:38:00,
2013-02-05 13:43:00,50.6,28.3,28.91,NW,315,0.0,2.2,42,0.00,,---,0.00,VWS V14.00,2013-02-05 18:43:00,
2013-02-05 13:48:00,50.6,28.3,28.91,WNW,283,2.7,2.7,42,0.00,,---,0.00,VWS V14.00,2013-02-05 18:48:00,
2013-02-05 13:53:00,50.7,28.5,28.91,NW,309,0.0,0.0,42,0.00,,---,0.00,VWS V14.00,2013-02-05 18:53:00,
2013-02-05 13:54:00,50.7,28.5,28.91,NW,309,0.0,0.0,42,0.00,,---,0.00,VWS V14.00,2013-02-05 18:54:00,
2013-02-05 13:58:00,51.1,28.8,28.91,NW,322,2.7,2.7,42,0.00,,---,0.00,VWS V14.00,2013-02-05 18:58:00,
2013-02-05 13:59:00,51.1,28.8,28.91,WNW,284,0.0,3.1,42,0.00,,---,0.00,VWS V14.00,2013-02-05 18:59:00,
2013-02-05 14:03:00,51.6,29.3,28.91,NW,310,0.0,0.0,42,0.00,,---,0.00,VWS V14.00,2013-02-05 19:03:00,
2013-02-05 14:04:00,51.8,29.5,28.91,WSW,244,2.2,2.2,42,0.00,,---,0.00,VWS V14.00,2013-02-05 19:04:00,
2013-02-05 14:08:00,52.2,29.8,28.91,WSW,253,0.0,0.0,42,0.00,,---,0.00,VWS V14.00,2013-02-05 19:08:00,
2013-02-05 14:09:00,52.2,29.8,28.91,WNW,297,3.1,3.1,42,0.00,,---,0.00,VWS V14.00,2013-02-05 19:09:00,
2013-02-05 14:13:00,52.2,29.8,28.91,WNW,291,0.0,0.0,42,0.00,,---,0.00,VWS V14.00,2013-02-05 19:13:00,
2013-02-05 14:14:00,52.2,29.8,28.91,WNW,291,0.0,0.0,42,0.00,,---,0.00,VWS V14.00,2013-02-05 19:14:00,
2013-02-05 14:18:00,52.2,29.8,28.91,West,270,0.0,0.0,42,0.00,,---,0.00,VWS V14.00,2013-02-05 19:18:00,
2013-02-05 14:19:00,52.2,29.8,28.91,West,270,0.0,0.0,42,0.00,,---,0.00,VWS V14.00,2013-02-05 19:19:00,
2013-02-05 14:23:00,51.8,29.5,28.91,West,270,0.0,0.0,42,0.00,,---,0.00,VWS V14.00,2013-02-05 19:23:00,
2013-02-05 14:24:00,51.8,29.5,28.91,WNW,288,0.0,0.0,42,0.00,,---,0.00,VWS V14.00,2013-02-05 19:24:00,
2013-02-05 14:28:00,51.8,29.5,28.91,WNW,303,0.0,3.1,42,0.00,,---,0.00,VWS V14.00,2013-02-05 19:28:00,
2013-02-05 14:29:00,51.6,29.3,28.91,WSW,256,0.0,0.0,42,0.00,,---,0.00,VWS V14.00,2013-02-05 19:29:00,
2013-02-05 14:33:00,51.6,29.3,28.91,West,266,0.0,2.2,42,0.00,,---,0.00,VWS V14.00,2013-02-05 19:33:00,
2013-02-05 14:34:00,51.6,29.3,28.91,West,271,0.0,0.0,42,0.00,,---,0.00,VWS V14.00,2013-02-05 19:34:00,
2013-02-05 14:38:00,51.5,29.1,28.91,West,271,0.0,0.0,42,0.00,,---,0.00,VWS V14.00,2013-02-05 19:38:00,
2013-02-05 14:39:00,51.5,29.1,28.91,West,271,0.0,0.0,42,0.00,,---,0.00,VWS V14.00,2013-02-05 19:39:00,
2013-02-05 14:43:00,51.5,29.1,28.88,NW,315,0.0,0.0,42,0.00,,---,0.00,VWS V14.00,2013-02-05 19:43:00,
2013-02-05 14:44:00,51.5,29.1,28.88,West,273,0.0,0.0,42,0.00,,---,0.00,VWS V14.00,2013-02-05 19:44:00,
2013-02-05 14:48:00,51.5,29.1,28.88,West,262,0.0,0.0,42,0.00,,---,0.00,VWS V14.00,2013-02-05 19:48:00,
2013-02-05 14:49:00,51.3,29.0,28.88,West,262,0.0,0.0,42,0.00,,---,0.00,VWS V14.00,2013-02-05 19:49:00,
2013-02-05 14:53:00,51.3,29.0,28.88,WSW,239,0.0,0.0,42,0.00,,---,0.00,VWS V14.00,2013-02-05 19:53:00,
2013-02-05 14:54:00,51.3,29.0,28.88,WSW,239,0.0,0.0,42,0.00,,---,0.00,VWS V14.00,2013-02-05 19:54:00,
2013-02-05 14:58:00,51.3,29.0,28.88,WSW,256,0.0,2.2,42,0.00,,---,0.00,VWS V14.00,2013-02-05 19:58:00,
2013-02-05 14:59:00,51.3,29.0,28.88,WSW,256,0.0,2.2,42,0.00,,---,0.00,VWS V14.00,2013-02-05 19:59:00,
2013-02-05 15:04:00,51.1,28.8,28.88,WNW,289,0.0,0.0,42,0.00,,---,0.00,VWS V14.00,2013-02-05 20:04:00,
2013-02-05 15:05:00,51.1,28.8,28.88,WNW,289,0.0,0.0,42,0.00,,---,0.00,VWS V14.00,2013-02-05 20:05:00,
2013-02-05 15:09:00,51.3,29.0,28.88,WNW,289,0.0,0.0,42,0.00,,---,0.00,VWS V14.00,2013-02-05 20:09:00,
2013-02-05 15:10:00,51.3,29.0,28.88,WNW,289,0.0,0.0,42,0.00,,---,0.00,VWS V14.00,2013-02-05 20:10:00,
2013-02-05 15:14:00,51.5,29.1,28.88,WNW,289,0.0,0.0,42,0.00,,---,0.00,VWS V14.00,2013-02-05 20:14:00,
2013-02-05 15:15:00,51.6,29.3,28.88,WSW,246,0.0,4.0,42,0.00,,---,0.00,VWS V14.00,2013-02-05 20:15:00,
2013-02-05 15:19:00,51.6,29.3,28.88,NW,311,0.0,0.0,42,0.00,,---,0.00,VWS V14.00,2013-02-05 20:19:00,
2013-02-05 15:20:00,51.6,29.3,28.88,NW,311,0.0,0.0,42,0.00,,---,0.00,VWS V14.00,2013-02-05 20:20:00,
2013-02-05 15:24:00,51.6,29.3,28.88,NW,311,0.0,0.0,42,0.00,,---,0.00,VWS V14.00,2013-02-05 20:24:00,
2013-02-05 15:25:00,51.6,29.3,28.88,NW,311,0.0,0.0,42,0.00,,---,0.00,VWS V14.00,2013-02-05 20:25:00,
2013-02-05 15:29:00,51.8,29.5,28.88,NW,311,0.0,0.0,42,0.00,,---,0.00,VWS V14.00,2013-02-05 20:29:00,
2013-02-05 15:30:00,51.8,29.5,28.88,WNW,297,0.0,0.0,42,0.00,,---,0.00,VWS V14.00,2013-02-05 20:30:00,
2013-02-05 15:34:00,52.0,29.6,28.88,West,277,0.0,0.0,42,0.00,,---,0.00,VWS V14.00,2013-02-05 20:34:00,
2013-02-05 15:35:00,52.0,29.6,28.88,West,277,0.0,0.0,42,0.00,,---,0.00,VWS V14.00,2013-02-05 20:35:00,
2013-02-05 15:39:00,52.0,29.6,28.88,West,262,0.0,2.7,42,0.00,,---,0.00,VWS V14.00,2013-02-05 20:39:00,
2013-02-05 15:40:00,52.0,29.6,28.88,West,263,0.0,0.0,42,0.00,,---,0.00,VWS V14.00,2013-02-05 20:40:00,
2013-02-05 15:44:00,52.0,29.6,28.88,NW,317,2.2,2.2,42,0.00,,---,0.00,VWS V14.00,2013-02-05 20:44:00,
2013-02-05 15:45:00,52.0,29.6,28.88,WNW,302,0.0,0.0,42,0.00,,---,0.00,VWS V14.00,2013-02-05 20:45:00,
2013-02-05 15:49:00,52.0,29.6,28.88,WNW,302,0.0,0.0,42,0.00,,---,0.00,VWS V14.00,2013-02-05 20:49:00,
2013-02-05 15:50:00,52.0,29.6,28.88,WNW,302,0.0,0.0,42,0.00,,---,0.00,VWS V14.00,2013-02-05 20:50:00,
2013-02-05 15:54:00,52.0,29.6,28.88,North,0,0.0,0.0,42,0.00,,---,0.00,VWS V14.00,2013-02-05 20:54:00,
2013-02-05 15:55:00,52.0,29.6,28.88,NNW,333,0.0,0.0,42,0.00,,---,0.00,VWS V14.00,2013-02-05 20:55:00,
2013-02-05 15:59:00,52.0,29.6,28.88,NNW,332,0.0,0.0,42,0.00,,---,0.00,VWS V14.00,2013-02-05 20:59:00,
2013-02-05 16:00:00,52.0,29.6,28.88,NNW,332,0.0,0.0,42,0.00,,---,0.00,VWS V14.00,2013-02-05 21:00:00,
2013-02-05 16:04:00,52.0,29.6,28.88,NNE,24,0.0,0.0,42,0.00,,---,0.00,VWS V14.00,2013-02-05 21:04:00,
2013-02-05 16:05:00,52.0,29.6,28.88,NNE,24,0.0,0.0,42,0.00,,---,0.00,VWS V14.00,2013-02-05 21:05:00,
2013-02-05 16:06:00,52.0,29.6,28.88,NNE,24,0.0,0.0,42,0.00,,---,0.00,VWS V14.00,2013-02-05 21:06:00,
2013-02-05 16:09:00,52.0,29.6,28.88,NNE,24,0.0,0.0,42,0.00,,---,0.00,VWS V14.00,2013-02-05 21:09:00,
2013-02-05 16:10:00,52.0,29.6,28.88,NNE,24,0.0,0.0,42,0.00,,---,0.00,VWS V14.00,2013-02-05 21:10:00,
2013-02-05 16:11:00,52.0,29.6,28.88,NNE,24,0.0,0.0,42,0.00,,---,0.00,VWS V14.00,2013-02-05 21:11:00,
2013-02-05 16:14:00,51.8,29.5,28.88,NNW,332,3.6,3.6,42,0.00,,---,0.00,VWS V14.00,2013-02-05 21:14:00,
2013-02-05 16:15:00,51.8,29.5,28.88,NW,312,0.0,0.0,42,0.00,,---,0.00,VWS V14.00,2013-02-05 21:15:00,
2013-02-05 16:16:00,51.8,29.5,28.88,NW,312,0.0,0.0,42,0.00,,---,0.00,VWS V14.00,2013-02-05 21:16:00,
2013-02-05 16:19:00,51.8,29.5,28.88,NW,312,0.0,0.0,42,0.00,,---,0.00,VWS V14.00,2013-02-05 21:19:00,
2013-02-05 16:20:00,51.8,29.5,28.88,NW,312,0.0,0.0,42,0.00,,---,0.00,VWS V14.00,2013-02-05 21:20:00,
2013-02-05 16:21:00,51.8,29.5,28.88,NW,312,0.0,0.0,42,0.00,,---,0.00,VWS V14.00,2013-02-05 21:21:00,
2013-02-05 16:24:00,51.6,29.3,28.88,NW,312,0.0,0.0,42,0.00,,---,0.00,VWS V14.00,2013-02-05 21:24:00,
2013-02-05 16:25:00,51.6,29.3,28.88,NW,312,0.0,0.0,42,0.00,,---,0.00,VWS V14.00,2013-02-05 21:25:00,
2013-02-05 16:26:00,51.6,29.3,28.88,WNW,288,0.0,2.2,42,0.00,,---,0.00,VWS V14.00,2013-02-05 21:26:00,
2013-02-05 16:29:00,51.6,29.3,28.88,WSW,256,0.0,2.2,42,0.00,,---,0.00,VWS V14.00,2013-02-05 21:29:00,
2013-02-05 16:30:00,51.6,29.3,28.88,WSW,256,0.0,2.2,42,0.00,,---,0.00,VWS V14.00,2013-02-05 21:30:00,
2013-02-05 16:31:00,51.6,29.3,28.88,WSW,256,0.0,0.0,42,0.00,,---,0.00,VWS V14.00,2013-02-05 21:31:00,
2013-02-05 16:34:00,51.6,29.3,28.88,WSW,256,0.0,0.0,42,0.00,,---,0.00,VWS V14.00,2013-02-05 21:34:00,
2013-02-05 16:35:00,51.6,29.3,28.88,WSW,257,0.0,0.0,42,0.00,,---,0.00,VWS V14.00,2013-02-05 21:35:00,
2013-02-05 16:36:00,51.6,29.3,28.88,NW,321,0.0,3.1,42,0.00,,---,0.00,VWS V14.00,2013-02-05 21:36:00,
2013-02-05 16:39:00,51.6,29.3,28.88,NW,321,0.0,0.0,42,0.00,,---,0.00,VWS V14.00,2013-02-05 21:39:00,
2013-02-05 16:40:00,51.6,29.3,28.88,NW,321,2.7,2.7,42,0.00,,---,0.00,VWS V14.00,2013-02-05 21:40:00,
2013-02-05 16:41:00,51.6,29.3,28.88,NW,321,0.0,0.0,42,0.00,,---,0.00,VWS V14.00,2013-02-05 21:41:00,
2013-02-05 16:44:00,51.5,29.1,28.88,NW,321,0.0,0.0,42,0.00,,---,0.00,VWS V14.00,2013-02-05 21:44:00,
2013-02-05 16:45:00,51.5,29.1,28.88,NW,321,0.0,0.0,42,0.00,,---,0.00,VWS V14.00,2013-02-05 21:45:00,
2013-02-05 16:46:00,51.5,29.1,28.88,NW,321,0.0,0.0,42,0.00,,---,0.00,VWS V14.00,2013-02-05 21:46:00,
2013-02-05 16:49:00,51.5,29.1,28.88,NW,321,0.0,0.0,42,0.00,,---,0.00,VWS V14.00,2013-02-05 21:49:00,
2013-02-05 16:50:00,51.5,29.1,28.88,NW,321,0.0,0.0,42,0.00,,---,0.00,VWS V14.00,2013-02-05 21:50:00,
2013-02-05 16:51:00,51.3,29.0,28.88,NW,320,0.0,0.0,42,0.00,,---,0.00,VWS V14.00,2013-02-05 21:51:00,
2013-02-05 16:54:00,51.3,29.0,28.88,NW,321,0.0,0.0,42,0.00,,---,0.00,VWS V14.00,2013-02-05 21:54:00,
2013-02-05 16:55:00,51.3,29.0,28.88,NW,320,0.0,0.0,42,0.00,,---,0.00,VWS V14.00,2013-02-05 21:55:00,
2013-02-05 16:56:00,51.3,29.0,28.88,NW,321,0.0,0.0,42,0.00,,---,0.00,VWS V14.00,2013-02-05 21:56:00,
2013-02-05 16:59:00,51.3,29.0,28.88,NW,321,0.0,0.0,42,0.00,,---,0.00,VWS V14.00,2013-02-05 21:59:00,
2013-02-05 17:00:00,51.3,29.0,28.88,NW,321,0.0,0.0,42,0.00,,---,0.00,VWS V14.00,2013-02-05 22:00:00,
2013-02-05 17:01:00,51.3,29.0,28.88,NW,320,0.0,0.0,42,0.00,,---,0.00,VWS V14.00,2013-02-05 22:01:00,
2013-02-05 17:04:00,51.3,29.0,28.88,NW,321,0.0,0.0,42,0.00,,---,0.00,VWS V14.00,2013-02-05 22:04:00,
2013-02-05 17:05:00,51.3,29.0,28.88,NW,321,0.0,0.0,42,0.00,,---,0.00,VWS V14.00,2013-02-05 22:05:00,
2013-02-05 17:06:00,51.3,29.0,28.88,NW,320,0.0,0.0,42,0.00,,---,0.00,VWS V14.00,2013-02-05 22:06:00,
2013-02-05 17:09:00,51.1,28.8,28.88,NW,320,0.0,0.0,42,0.00,,---,0.00,VWS V14.00,2013-02-05 22:09:00,
2013-02-05 17:10:00,51.1,28.8,28.88,NW,321,0.0,0.0,42,0.00,,---,0.00,VWS V14.00,2013-02-05 22:10:00,
2013-02-05 17:11:00,51.1,28.8,28.88,NW,321,0.0,0.0,42,0.00,,---,0.00,VWS V14.00,2013-02-05 22:11:00,
2013-02-05 17:14:00,51.1,28.8,28.88,NW,321,0.0,0.0,42,0.00,,---,0.00,VWS V14.00,2013-02-05 22:14:00,
2013-02-05 17:15:00,51.1,28.8,28.88,NW,321,0.0,0.0,42,0.00,,---,0.00,VWS V14.00,2013-02-05 22:15:00,
2013-02-05 17:16:00,51.1,28.8,28.88,NW,320,0.0,0.0,42,0.00,,---,0.00,VWS V14.00,2013-02-05 22:16:00,
2013-02-05 17:20:00,51.1,28.8,28.88,NW,320,0.0,0.0,42,0.00,,---,0.00,VWS V14.00,2013-02-05 22:20:00,
2013-02-05 17:21:00,51.1,28.8,28.88,NW,321,0.0,0.0,42,0.00,,---,0.00,VWS V14.00,2013-02-05 22:21:00,
2013-02-05 17:25:00,51.1,28.8,28.88,NW,321,0.0,0.0,42,0.00,,---,0.00,VWS V14.00,2013-02-05 22:25:00,
2013-02-05 17:26:00,51.1,28.8,28.88,NW,321,0.0,0.0,42,0.00,,---,0.00,VWS V14.00,2013-02-05 22:26:00,
2013-02-05 17:30:00,51.1,28.8,28.91,NW,321,0.0,0.0,42,0.00,,---,0.00,VWS V14.00,2013-02-05 22:30:00,
2013-02-05 17:31:00,51.1,28.8,28.91,NW,320,0.0,0.0,42,0.00,,---,0.00,VWS V14.00,2013-02-05 22:31:00,
2013-02-05 17:35:00,51.1,28.8,28.91,NW,321,0.0,0.0,42,0.00,,---,0.00,VWS V14.00,2013-02-05 22:35:00,
2013-02-05 17:36:00,51.1,28.8,28.91,NW,321,0.0,0.0,42,0.00,,---,0.00,VWS V14.00,2013-02-05 22:36:00,
2013-02-05 17:40:00,50.9,28.7,28.91,NW,320,0.0,0.0,42,0.00,,---,0.00,VWS V14.00,2013-02-05 22:40:00,
2013-02-05 17:41:00,50.9,28.7,28.91,NW,320,0.0,0.0,42,0.00,,---,0.00,VWS V14.00,2013-02-05 22:41:00,
2013-02-05 17:42:00,50.9,28.7,28.91,NW,321,0.0,0.0,42,0.00,,---,0.00,VWS V14.00,2013-02-05 22:42:00,
2013-02-05 17:45:00,50.9,28.7,28.91,NW,321,0.0,0.0,42,0.00,,---,0.00,VWS V14.00,2013-02-05 22:45:00,
2013-02-05 17:46:00,50.9,28.7,28.91,NW,321,0.0,0.0,42,0.00,,---,0.00,VWS V14.00,2013-02-05 22:46:00,
2013-02-05 17:47:00,50.9,28.7,28.91,NW,321,0.0,0.0,42,0.00,,---,0.00,VWS V14.00,2013-02-05 22:47:00,
2013-02-05 17:50:00,50.7,28.5,28.91,NW,321,0.0,0.0,42,0.00,,---,0.00,VWS V14.00,2013-02-05 22:50:00,
2013-02-05 17:51:00,50.7,28.5,28.91,NW,321,0.0,0.0,42,0.00,,---,0.00,VWS V14.00,2013-02-05 22:51:00,
2013-02-05 17:52:00,50.7,28.5,28.91,NW,321,0.0,0.0,42,0.00,,---,0.00,VWS V14.00,2013-02-05 22:52:00,
2013-02-05 17:55:00,50.7,28.5,28.91,NW,321,0.0,0.0,42,0.00,,---,0.00,VWS V14.00,2013-02-05 22:55:00,
2013-02-05 17:56:00,50.7,28.5,28.91,NW,320,0.0,0.0,42,0.00,,---,0.00,VWS V14.00,2013-02-05 22:56:00,
2013-02-05 17:57:00,50.7,28.5,28.91,NW,321,0.0,0.0,42,0.00,,---,0.00,VWS V14.00,2013-02-05 22:57:00,
2013-02-05 18:00:00,50.6,28.3,28.91,NW,321,0.0,0.0,42,0.00,,---,0.00,VWS V14.00,2013-02-05 23:00:00,
2013-02-05 18:01:00,50.6,28.3,28.91,NW,320,0.0,0.0,42,0.00,,---,0.00,VWS V14.00,2013-02-05 23:01:00,
2013-02-05 18:02:00,50.6,28.3,28.91,NW,320,0.0,0.0,42,0.00,,---,0.00,VWS V14.00,2013-02-05 23:02:00,
2013-02-05 18:05:00,50.6,28.3,28.91,NW,321,0.0,0.0,42,0.00,,---,0.00,VWS V14.00,2013-02-05 23:05:00,
2013-02-05 18:06:00,50.6,28.3,28.91,NW,321,0.0,0.0,42,0.00,,---,0.00,VWS V14.00,2013-02-05 23:06:00,
2013-02-05 18:07:00,50.6,28.3,28.91,NW,321,0.0,0.0,42,0.00,,---,0.00,VWS V14.00,2013-02-05 23:07:00,
2013-02-05 18:10:00,50.4,28.2,28.91,NW,321,0.0,0.0,42,0.00,,---,0.00,VWS V14.00,2013-02-05 23:10:00,
2013-02-05 18:11:00,50.4,28.2,28.91,NW,321,0.0,0.0,42,0.00,,---,0.00,VWS V14.00,2013-02-05 23:11:00,
2013-02-05 18:12:00,50.4,28.2,28.91,NW,321,0.0,0.0,42,0.00,,---,0.00,VWS V14.00,2013-02-05 23:12:00,
2013-02-05 18:15:00,50.2,28.0,28.91,NW,321,0.0,0.0,42,0.00,,---,0.00,VWS V14.00,2013-02-05 23:15:00,
2013-02-05 18:16:00,50.2,28.0,28.91,NW,321,0.0,0.0,42,0.00,,---,0.00,VWS V14.00,2013-02-05 23:16:00,
2013-02-05 18:17:00,50.2,28.0,28.91,NW,321,0.0,0.0,42,0.00,,---,0.00,VWS V14.00,2013-02-05 23:17:00,
2013-02-05 18:20:00,50.0,27.9,28.91,NW,320,0.0,0.0,42,0.00,,---,0.00,VWS V14.00,2013-02-05 23:20:00,
2013-02-05 18:21:00,50.0,27.9,28.91,NW,321,0.0,0.0,42,0.00,,---,0.00,VWS V14.00,2013-02-05 23:21:00,
2013-02-05 18:23:00,50.0,27.9,28.91,NW,321,0.0,0.0,42,0.00,,---,0.00,VWS V14.00,2013-02-05 23:23:00,
2013-02-05 18:25:00,50.0,27.9,28.91,NW,321,0.0,0.0,42,0.00,,---,0.00,VWS V14.00,2013-02-05 23:25:00,
2013-02-05 18:26:00,49.8,27.7,28.91,NW,321,0.0,0.0,42,0.00,,---,0.00,VWS V14.00,2013-02-05 23:26:00,
2013-02-05 18:28:00,49.8,27.7,28.91,NW,321,0.0,0.0,42,0.00,,---,0.00,VWS V14.00,2013-02-05 23:28:00,
2013-02-05 18:30:00,49.8,27.7,28.91,NW,321,0.0,0.0,42,0.00,,---,0.00,VWS V14.00,2013-02-05 23:30:00,
2013-02-05 18:31:00,49.8,27.7,28.91,NW,321,0.0,0.0,42,0.00,,---,0.00,VWS V14.00,2013-02-05 23:31:00,
2013-02-05 18:33:00,49.8,27.7,28.91,NW,321,0.0,0.0,42,0.00,,---,0.00,VWS V14.00,2013-02-05 23:33:00,
2013-02-05 18:35:00,49.7,27.5,28.91,NW,321,0.0,0.0,42,0.00,,---,0.00,VWS V14.00,2013-02-05 23:35:00,
2013-02-05 18:36:00,49.7,27.5,28.91,NW,320,0.0,0.0,42,0.00,,---,0.00,VWS V14.00,2013-02-05 23:36:00,
2013-02-05 18:38:00,49.7,27.5,28.91,NW,321,0.0,0.0,42,0.00,,---,0.00,VWS V14.00,2013-02-05 23:38:00,
2013-02-05 18:40:00,49.7,27.5,28.91,NW,320,0.0,0.0,42,0.00,,---,0.00,VWS V14.00,2013-02-05 23:40:00,
2013-02-05 18:41:00,49.5,27.4,28.91,NW,321,0.0,0.0,42,0.00,,---,0.00,VWS V14.00,2013-02-05 23:41:00,
2013-02-05 18:43:00,49.5,27.4,28.91,NW,321,0.0,0.0,42,0.00,,---,0.00,VWS V14.00,2013-02-05 23:43:00,
2013-02-05 18:45:00,49.5,27.4,28.91,NW,320,0.0,0.0,42,0.00,,---,0.00,VWS V14.00,2013-02-05 23:45:00,
2013-02-05 18:46:00,49.5,27.4,28.91,NW,320,0.0,0.0,42,0.00,,---,0.00,VWS V14.00,2013-02-05 23:46:00,
2013-02-05 18:48:00,49.3,27.2,28.91,NW,321,0.0,0.0,42,0.00,,---,0.00,VWS V14.00,2013-02-05 23:48:00,
2013-02-05 18:50:00,49.3,27.2,28.91,NW,321,0.0,0.0,42,0.00,,---,0.00,VWS V14.00,2013-02-05 23:50:00,
2013-02-05 18:51:00,49.3,27.2,28.91,NW,321,0.0,0.0,42,0.00,,---,0.00,VWS V14.00,2013-02-05 23:51:00,
2013-02-05 18:53:00,49.3,27.2,28.91,NW,321,0.0,0.0,42,0.00,,---,0.00,VWS V14.00,2013-02-05 23:53:00,
2013-02-05 18:55:00,49.3,27.2,28.91,NW,321,0.0,0.0,42,0.00,,---,0.00,VWS V14.00,2013-02-05 23:55:00,
2013-02-05 18:56:00,49.3,27.2,28.91,NW,320,0.0,0.0,42,0.00,,---,0.00,VWS V14.00,2013-02-05 23:56:00,
2013-02-05 18:57:00,49.3,27.2,28.91,NW,320,0.0,0.0,42,0.00,,---,0.00,VWS V14.00,2013-02-05 23:57:00,
2013-02-05 18:58:00,49.3,27.2,28.91,NW,321,0.0,0.0,42,0.00,,---,0.00,VWS V14.00,2013-02-05 23:58:00,
2013-02-05 19:01:00,49.1,27.0,28.91,NW,321,0.0,0.0,42,0.00,,---,0.00,VWS V14.00,2013-02-06 00:01:00,
2013-02-05 19:02:00,49.1,27.0,28.91,NW,321,0.0,0.0,42,0.00,,---,0.00,VWS V14.00,2013-02-06 00:02:00,
2013-02-05 19:03:00,49.1,27.0,28.91,NW,320,0.0,0.0,42,0.00,,---,0.00,VWS V14.00,2013-02-06 00:03:00,
2013-02-05 19:06:00,49.1,27.0,28.91,NW,321,0.0,0.0,42,0.00,,---,0.00,VWS V14.00,2013-02-06 00:06:00,
2013-02-05 19:07:00,49.1,27.0,28.91,NW,321,0.0,0.0,42,0.00,,---,0.00,VWS V14.00,2013-02-06 00:07:00,
2013-02-05 19:08:00,49.1,27.0,28.91,NW,320,0.0,0.0,42,0.00,,---,0.00,VWS V14.00,2013-02-06 00:08:00,
2013-02-05 19:11:00,49.1,27.0,28.91,NW,321,0.0,0.0,42,0.00,,---,0.00,VWS V14.00,2013-02-06 00:11:00,
2013-02-05 19:12:00,49.1,27.0,28.91,NW,321,0.0,0.0,42,0.00,,---,0.00,VWS V14.00,2013-02-06 00:12:00,
2013-02-05 19:13:00,49.1,27.0,28.94,NW,321,0.0,0.0,42,0.00,,---,0.00,VWS V14.00,2013-02-06 00:13:00,
2013-02-05 19:16:00,49.1,27.0,28.94,NW,321,0.0,0.0,42,0.00,,---,0.00,VWS V14.00,2013-02-06 00:16:00,
2013-02-05 19:17:00,49.1,27.0,28.94,NW,320,0.0,0.0,42,0.00,,---,0.00,VWS V14.00,2013-02-06 00:17:00,
2013-02-05 19:18:00,48.9,26.9,28.94,NW,321,0.0,0.0,42,0.00,,---,0.00,VWS V14.00,2013-02-06 00:18:00,
2013-02-05 19:21:00,48.9,26.9,28.94,NW,320,0.0,0.0,42,0.00,,---,0.00,VWS V14.00,2013-02-06 00:21:00,
2013-02-05 19:22:00,48.9,26.9,28.94,NW,321,0.0,0.0,42,0.00,,---,0.00,VWS V14.00,2013-02-06 00:22:00,
2013-02-05 19:23:00,48.9,26.9,28.94,NW,321,0.0,0.0,42,0.00,,---,0.00,VWS V14.00,2013-02-06 00:23:00,
2013-02-05 19:26:00,48.9,26.9,28.94,NW,321,0.0,0.0,42,0.00,,---,0.00,VWS V14.00,2013-02-06 00:26:00,
2013-02-05 19:27:00,48.9,26.9,28.94,NW,321,0.0,0.0,42,0.00,,---,0.00,VWS V14.00,2013-02-06 00:27:00,
2013-02-05 19:28:00,48.8,26.7,28.91,NW,320,0.0,0.0,42,0.00,,---,0.00,VWS V14.00,2013-02-06 00:28:00,
2013-02-05 19:31:00,48.8,26.7,28.91,NW,320,0.0,0.0,42,0.00,,---,0.00,VWS V14.00,2013-02-06 00:31:00,
2013-02-05 19:32:00,48.8,26.7,28.91,NW,320,0.0,0.0,42,0.00,,---,0.00,VWS V14.00,2013-02-06 00:32:00,
2013-02-05 19:34:00,48.8,26.7,28.91,NW,321,0.0,0.0,42,0.00,,---,0.00,VWS V14.00,2013-02-06 00:34:00,
2013-02-05 19:36:00,48.8,26.7,28.91,NW,320,0.0,0.0,42,0.00,,---,0.00,VWS V14.00,2013-02-06 00:36:00,
2013-02-05 19:37:00,48.8,26.7,28.91,NW,320,0.0,0.0,42,0.00,,---,0.00,VWS V14.00,2013-02-06 00:37:00,
2013-02-05 19:39:00,48.8,26.7,28.91,NW,321,0.0,0.0,42,0.00,,---,0.00,VWS V14.00,2013-02-06 00:39:00,
2013-02-05 19:41:00,48.6,26.5,28.91,NW,321,0.0,0.0,42,0.00,,---,0.00,VWS V14.00,2013-02-06 00:41:00,
2013-02-05 19:42:00,48.6,26.5,28.91,NW,321,0.0,0.0,42,0.00,,---,0.00,VWS V14.00,2013-02-06 00:42:00,
2013-02-05 19:43:00,48.6,26.5,28.91,NW,321,0.0,0.0,42,0.00,,---,0.00,VWS V14.00,2013-02-06 00:43:00,
2013-02-05 19:44:00,48.6,26.5,28.91,NW,320,0.0,0.0,42,0.00,,---,0.00,VWS V14.00,2013-02-06 00:44:00,
2013-02-05 19:46:00,48.6,26.5,28.91,NW,320,0.0,0.0,42,0.00,,---,0.00,VWS V14.00,2013-02-06 00:46:00,
2013-02-05 19:47:00,48.6,26.5,28.91,NW,321,0.0,0.0,42,0.00,,---,0.00,VWS V14.00,2013-02-06 00:47:00,
2013-02-05 19:48:00,48.6,26.5,28.91,NW,321,0.0,0.0,42,0.00,,---,0.00,VWS V14.00,2013-02-06 00:48:00,
2013-02-05 19:49:00,48.6,26.5,28.91,NW,320,0.0,0.0,42,0.00,,---,0.00,VWS V14.00,2013-02-06 00:49:00,
2013-02-05 19:51:00,48.4,26.4,28.91,NW,320,0.0,0.0,42,0.00,,---,0.00,VWS V14.00,2013-02-06 00:51:00,
2013-02-05 19:52:00,48.4,26.4,28.91,NW,321,0.0,0.0,42,0.00,,---,0.00,VWS V14.00,2013-02-06 00:52:00,
2013-02-05 19:53:00,48.4,26.4,28.91,NW,321,0.0,0.0,42,0.00,,---,0.00,VWS V14.00,2013-02-06 00:53:00,
2013-02-05 19:54:00,48.4,26.4,28.91,NW,321,0.0,0.0,42,0.00,,---,0.00,VWS V14.00,2013-02-06 00:54:00,
2013-02-05 19:56:00,48.4,26.4,28.91,NW,321,0.0,0.0,42,0.00,,---,0.00,VWS V14.00,2013-02-06 00:56:00,
2013-02-05 19:57:00,48.4,26.4,28.94,NW,321,0.0,0.0,42,0.00,,---,0.00,VWS V14.00,2013-02-06 00:57:00,
2013-02-05 19:58:00,48.4,26.4,28.94,NW,320,0.0,0.0,42,0.00,,---,0.00,VWS V14.00,2013-02-06 00:58:00,
2013-02-05 19:59:00,48.4,26.4,28.94,NW,320,0.0,0.0,42,0.00,,---,0.00,VWS V14.00,2013-02-06 00:59:00,
2013-02-05 20:01:00,48.4,26.4,28.94,NW,320,0.0,0.0,42,0.00,,---,0.00,VWS V14.00,2013-02-06 01:01:00,
2013-02-05 20:03:00,48.2,27.9,28.94,NW,321,0.0,0.0,45,0.00,,---,0.00,VWS V14.00,2013-02-06 01:03:00,
2013-02-05 20:04:00,48.2,27.9,28.94,NW,320,0.0,0.0,45,0.00,,---,0.00,VWS V14.00,2013-02-06 01:04:00,
2013-02-05 20:06:00,48.2,27.9,28.94,NW,321,0.0,0.0,45,0.00,,---,0.00,VWS V14.00,2013-02-06 01:06:00,
2013-02-05 20:08:00,48.2,27.9,28.94,NW,320,0.0,0.0,45,0.00,,---,0.00,VWS V14.00,2013-02-06 01:08:00,
2013-02-05 20:09:00,48.2,27.9,28.94,NW,320,0.0,0.0,45,0.00,,---,0.00,VWS V14.00,2013-02-06 01:09:00,
2013-02-05 20:11:00,48.2,27.9,28.94,NW,321,0.0,0.0,45,0.00,,---,0.00,VWS V14.00,2013-02-06 01:11:00,
2013-02-05 20:13:00,48.0,27.7,28.94,NW,321,0.0,0.0,45,0.00,,---,0.00,VWS V14.00,2013-02-06 01:13:00,
2013-02-05 20:14:00,48.0,27.7,28.94,NW,321,0.0,0.0,45,0.00,,---,0.00,VWS V14.00,2013-02-06 01:14:00,
2013-02-05 20:16:00,48.0,27.7,28.94,NW,321,0.0,0.0,45,0.00,,---,0.00,VWS V14.00,2013-02-06 01:16:00,
2013-02-05 20:18:00,48.0,27.7,28.94,NW,321,0.0,0.0,45,0.00,,---,0.00,VWS V14.00,2013-02-06 01:18:00,
2013-02-05 20:19:00,48.0,27.7,28.94,NW,320,0.0,0.0,45,0.00,,---,0.00,VWS V14.00,2013-02-06 01:19:00,
2013-02-05 20:21:00,48.0,27.7,28.94,NW,321,0.0,0.0,45,0.00,,---,0.00,VWS V14.00,2013-02-06 01:21:00,
2013-02-05 20:23:00,48.0,27.7,28.94,NW,321,0.0,0.0,45,0.00,,---,0.00,VWS V14.00,2013-02-06 01:23:00,
2013-02-05 20:24:00,47.9,27.6,28.94,NW,320,0.0,0.0,45,0.00,,---,0.00,VWS V14.00,2013-02-06 01:24:00,
2013-02-05 20:26:00,47.9,27.6,28.94,NW,321,0.0,0.0,45,0.00,,---,0.00,VWS V14.00,2013-02-06 01:26:00,
2013-02-05 20:28:00,47.9,27.6,28.94,NW,321,0.0,0.0,45,0.00,,---,0.00,VWS V14.00,2013-02-06 01:28:00,
2013-02-05 20:29:00,47.9,27.6,28.94,NW,321,0.0,0.0,45,0.00,,---,0.00,VWS V14.00,2013-02-06 01:29:00,
2013-02-05 20:31:00,47.7,27.4,28.94,NW,320,0.0,0.0,45,0.00,,---,0.00,VWS V14.00,2013-02-06 01:31:00,
2013-02-05 20:33:00,47.7,27.4,28.94,NW,320,0.0,0.0,45,0.00,,---,0.00,VWS V14.00,2013-02-06 01:33:00,
2013-02-05 20:34:00,47.5,27.2,28.94,NW,321,0.0,0.0,45,0.00,,---,0.00,VWS V14.00,2013-02-06 01:34:00,
2013-02-05 20:36:00,47.5,27.2,28.94,NW,321,0.0,0.0,45,0.00,,---,0.00,VWS V14.00,2013-02-06 01:36:00,
2013-02-05 20:38:00,47.5,27.2,28.94,NW,320,0.0,0.0,45,0.00,,---,0.00,VWS V14.00,2013-02-06 01:38:00,
2013-02-05 20:39:00,47.5,27.2,28.94,NW,320,0.0,0.0,45,0.00,,---,0.00,VWS V14.00,2013-02-06 01:39:00,
2013-02-05 20:42:00,47.3,27.1,28.94,NW,321,0.0,0.0,45,0.00,,---,0.00,VWS V14.00,2013-02-06 01:42:00,
2013-02-05 20:43:00,47.3,27.1,28.91,NW,321,0.0,0.0,45,0.00,,---,0.00,VWS V14.00,2013-02-06 01:43:00,
2013-02-05 20:44:00,47.3,27.1,28.91,NW,320,0.0,0.0,45,0.00,,---,0.00,VWS V14.00,2013-02-06 01:44:00,
2013-02-05 20:47:00,47.1,26.9,28.91,NW,320,0.0,0.0,45,0.00,,---,0.00,VWS V14.00,2013-02-06 01:47:00,
2013-02-05 20:48:00,47.1,26.9,28.91,NW,321,0.0,0.0,45,0.00,,---,0.00,VWS V14.00,2013-02-06 01:48:00,
2013-02-05 20:49:00,47.1,26.9,28.91,NW,320,0.0,0.0,45,0.00,,---,0.00,VWS V14.00,2013-02-06 01:49:00,
2013-02-05 20:52:00,47.1,26.9,28.91,NW,320,0.0,0.0,45,0.00,,---,0.00,VWS V14.00,2013-02-06 01:52:00,
2013-02-05 20:53:00,47.0,26.7,28.91,NW,320,0.0,0.0,45,0.00,,---,0.00,VWS V14.00,2013-02-06 01:53:00,
2013-02-05 20:54:00,47.0,26.7,28.91,NW,321,0.0,0.0,45,0.00,,---,0.00,VWS V14.00,2013-02-06 01:54:00,
2013-02-05 20:57:00,46.8,26.6,28.91,NW,321,0.0,0.0,45,0.00,,---,0.00,VWS V14.00,2013-02-06 01:57:00,
2013-02-05 20:58:00,46.8,26.6,28.94,NW,321,0.0,0.0,45,0.00,,---,0.00,VWS V14.00,2013-02-06 01:58:00,
2013-02-05 20:59:00,46.8,26.6,28.94,NW,321,0.0,0.0,45,0.00,,---,0.00,VWS V14.00,2013-02-06 01:59:00,
2013-02-05 21:02:00,46.8,26.6,28.94,NW,321,0.0,0.0,45,0.00,,---,0.00,VWS V14.00,2013-02-06 02:02:00,
2013-02-05 21:03:00,46.6,26.4,28.94,NW,320,0.0,0.0,45,0.00,,---,0.00,VWS V14.00,2013-02-06 02:03:00,
2013-02-05 21:04:00,46.6,26.4,28.94,NW,320,0.0,0.0,45,0.00,,---,0.00,VWS V14.00,2013-02-06 02:04:00,
2013-02-05 21:07:00,46.8,26.6,28.94,NW,321,0.0,0.0,45,0.00,,---,0.00,VWS V14.00,2013-02-06 02:07:00,
2013-02-05 21:08:00,46.8,26.6,28.94,NW,321,0.0,0.0,45,0.00,,---,0.00,VWS V14.00,2013-02-06 02:08:00,
2013-02-05 21:09:00,46.8,26.6,28.94,NW,321,0.0,0.0,45,0.00,,---,0.00,VWS V14.00,2013-02-06 02:09:00,
2013-02-05 21:12:00,46.8,26.6,28.94,NW,320,0.0,0.0,45,0.00,,---,0.00,VWS V14.00,2013-02-06 02:12:00,
2013-02-05 21:13:00,46.8,26.6,28.94,NW,321,0.0,0.0,45,0.00,,---,0.00,VWS V14.00,2013-02-06 02:13:00,
2013-02-05 21:14:00,46.8,26.6,28.94,NW,320,0.0,0.0,45,0.00,,---,0.00,VWS V14.00,2013-02-06 02:14:00,
2013-02-05 21:17:00,46.8,26.6,28.94,NW,321,0.0,0.0,45,0.00,,---,0.00,VWS V14.00,2013-02-06 02:17:00,
2013-02-05 21:18:00,46.8,26.6,28.94,NW,321,0.0,0.0,45,0.00,,---,0.00,VWS V14.00,2013-02-06 02:18:00,
2013-02-05 21:19:00,46.6,26.4,28.94,NW,321,0.0,0.0,45,0.00,,---,0.00,VWS V14.00,2013-02-06 02:19:00,
2013-02-05 21:22:00,46.6,26.4,28.94,NW,320,0.0,0.0,45,0.00,,---,0.00,VWS V14.00,2013-02-06 02:22:00,
2013-02-05 21:23:00,46.6,26.4,28.94,NW,320,0.0,0.0,45,0.00,,---,0.00,VWS V14.00,2013-02-06 02:23:00,
2013-02-05 21:24:00,46.6,26.4,28.94,NW,321,0.0,0.0,45,0.00,,---,0.00,VWS V14.00,2013-02-06 02:24:00,
2013-02-05 21:27:00,46.6,26.4,28.94,NW,321,0.0,0.0,45,0.00,,---,0.00,VWS V14.00,2013-02-06 02:27:00,
2013-02-05 21:28:00,46.6,26.4,28.94,NW,320,0.0,0.0,45,0.00,,---,0.00,VWS V14.00,2013-02-06 02:28:00,
2013-02-05 21:29:00,46.6,26.4,28.94,NW,320,0.0,0.0,45,0.00,,---,0.00,VWS V14.00,2013-02-06 02:29:00,
2013-02-05 21:32:00,46.6,26.4,28.94,NW,321,0.0,0.0,45,0.00,,---,0.00,VWS V14.00,2013-02-06 02:32:00,
2013-02-05 21:33:00,46.6,26.4,28.94,NW,321,0.0,0.0,45,0.00,,---,0.00,VWS V14.00,2013-02-06 02:33:00,
2013-02-05 21:34:00,46.6,26.4,28.94,NW,320,0.0,0.0,45,0.00,,---,0.00,VWS V14.00,2013-02-06 02:34:00,
2013-02-05 21:35:00,46.6,26.4,28.94,NW,321,0.0,0.0,45,0.00,,---,0.00,VWS V14.00,2013-02-06 02:35:00,
2013-02-05 21:37:00,46.6,26.4,28.94,NW,320,0.0,0.0,45,0.00,,---,0.00,VWS V14.00,2013-02-06 02:37:00,
2013-02-05 21:38:00,46.6,26.4,28.94,NW,321,0.0,0.0,45,0.00,,---,0.00,VWS V14.00,2013-02-06 02:38:00,
2013-02-05 21:39:00,46.6,26.4,28.94,NW,320,0.0,0.0,45,0.00,,---,0.00,VWS V14.00,2013-02-06 02:39:00,
2013-02-05 21:40:00,46.6,26.4,28.94,NW,320,0.0,0.0,45,0.00,,---,0.00,VWS V14.00,2013-02-06 02:40:00,
2013-02-05 21:42:00,46.4,26.2,28.94,NW,321,0.0,0.0,45,0.00,,---,0.00,VWS V14.00,2013-02-06 02:42:00,
2013-02-05 21:43:00,46.4,26.2,28.94,NW,320,0.0,0.0,45,0.00,,---,0.00,VWS V14.00,2013-02-06 02:43:00,
2013-02-05 21:44:00,46.4,26.2,28.94,NW,320,0.0,0.0,45,0.00,,---,0.00,VWS V14.00,2013-02-06 02:44:00,
2013-02-05 21:45:00,46.4,26.2,28.94,NW,320,0.0,0.0,45,0.00,,---,0.00,VWS V14.00,2013-02-06 02:45:00,
2013-02-05 21:47:00,46.4,26.2,28.94,NW,321,0.0,0.0,45,0.00,,---,0.00,VWS V14.00,2013-02-06 02:47:00,
2013-02-05 21:48:00,46.4,26.2,28.94,NW,321,0.0,0.0,45,0.00,,---,0.00,VWS V14.00,2013-02-06 02:48:00,
2013-02-05 21:49:00,46.4,26.2,28.94,NW,321,0.0,0.0,45,0.00,,---,0.00,VWS V14.00,2013-02-06 02:49:00,
2013-02-05 21:50:00,46.4,26.2,28.94,NW,321,0.0,0.0,45,0.00,,---,0.00,VWS V14.00,2013-02-06 02:50:00,
2013-02-05 21:52:00,46.4,26.2,28.94,NW,321,0.0,0.0,45,0.00,,---,0.00,VWS V14.00,2013-02-06 02:52:00,
2013-02-05 21:53:00,46.4,26.2,28.94,NW,321,0.0,0.0,45,0.00,,---,0.00,VWS V14.00,2013-02-06 02:53:00,
2013-02-05 21:54:00,46.4,26.2,28.94,NW,320,0.0,0.0,45,0.00,,---,0.00,VWS V14.00,2013-02-06 02:54:00,
2013-02-05 21:55:00,46.4,26.2,28.94,NW,321,0.0,0.0,45,0.00,,---,0.00,VWS V14.00,2013-02-06 02:55:00,
2013-02-05 21:57:00,46.4,26.2,28.94,NW,320,0.0,0.0,45,0.00,,---,0.00,VWS V14.00,2013-02-06 02:57:00,
2013-02-05 21:58:00,46.4,26.2,28.94,NW,320,0.0,0.0,45,0.00,,---,0.00,VWS V14.00,2013-02-06 02:58:00,
2013-02-05 21:59:00,46.2,26.1,28.94,NW,320,0.0,0.0,45,0.00,,---,0.00,VWS V14.00,2013-02-06 02:59:00,
2013-02-05 22:00:00,46.2,26.1,28.94,NW,320,0.0,0.0,45,0.00,,---,0.00,VWS V14.00,2013-02-06 03:00:00,
2013-02-05 22:02:00,46.2,26.1,28.94,NW,320,0.0,0.0,45,0.00,,---,0.00,VWS V14.00,2013-02-06 03:02:00,
2013-02-05 22:03:00,46.2,26.1,28.94,NW,321,0.0,0.0,45,0.00,,---,0.00,VWS V14.00,2013-02-06 03:03:00,
2013-02-05 22:04:00,46.2,26.1,28.94,NW,320,0.0,0.0,45,0.00,,---,0.00,VWS V14.00,2013-02-06 03:04:00,
2013-02-05 22:05:00,46.2,26.1,28.94,NW,321,0.0,0.0,45,0.00,,---,0.00,VWS V14.00,2013-02-06 03:05:00,
2013-02-05 22:07:00,46.1,25.9,28.94,NW,320,0.0,0.0,45,0.00,,---,0.00,VWS V14.00,2013-02-06 03:07:00,
2013-02-05 22:08:00,46.1,25.9,28.94,NW,320,0.0,0.0,45,0.00,,---,0.00,VWS V14.00,2013-02-06 03:08:00,
2013-02-05 22:09:00,46.1,25.9,28.94,NW,321,0.0,0.0,45,0.00,,---,0.00,VWS V14.00,2013-02-06 03:09:00,
2013-02-05 22:10:00,46.1,30.4,28.94,NW,321,0.0,0.0,54,0.00,,---,0.00,VWS V14.00,2013-02-06 03:10:00,
2013-02-05 22:12:00,46.1,30.4,28.94,NW,321,0.0,0.0,54,0.00,,---,0.00,VWS V14.00,2013-02-06 03:12:00,
2013-02-05 22:13:00,45.9,30.2,28.94,NW,320,0.0,0.0,54,0.00,,---,0.00,VWS V14.00,2013-02-06 03:13:00,
2013-02-05 22:14:00,45.9,30.2,28.94,NW,321,0.0,0.0,54,0.00,,---,0.00,VWS V14.00,2013-02-06 03:14:00,
2013-02-05 22:15:00,45.9,30.2,28.94,NW,320,0.0,0.0,54,0.00,,---,0.00,VWS V14.00,2013-02-06 03:15:00,
2013-02-05 22:17:00,45.7,30.0,28.94,NW,320,0.0,0.0,54,0.00,,---,0.00,VWS V14.00,2013-02-06 03:17:00,
2013-02-05 22:18:00,45.7,30.0,28.94,NW,321,0.0,0.0,54,0.00,,---,0.00,VWS V14.00,2013-02-06 03:18:00,
2013-02-05 22:19:00,45.7,30.0,28.94,NW,320,0.0,0.0,54,0.00,,---,0.00,VWS V14.00,2013-02-06 03:19:00,
2013-02-05 22:20:00,45.7,30.0,28.94,NW,320,0.0,0.0,54,0.00,,---,0.00,VWS V14.00,2013-02-06 03:20:00,
2013-02-05 22:23:00,45.5,29.9,28.94,NW,320,0.0,0.0,54,0.00,,---,0.00,VWS V14.00,2013-02-06 03:23:00,
2013-02-05 22:25:00,45.5,29.9,28.94,NW,321,0.0,0.0,54,0.00,,---,0.00,VWS V14.00,2013-02-06 03:25:00,
2013-02-05 22:28:00,45.3,29.7,28.94,NW,320,0.0,0.0,54,0.00,,---,0.00,VWS V14.00,2013-02-06 03:28:00,
2013-02-05 22:30:00,45.3,29.7,28.94,NW,321,0.0,0.0,54,0.00,,---,0.00,VWS V14.00,2013-02-06 03:30:00,
2013-02-05 22:33:00,45.2,29.5,28.94,NW,321,0.0,0.0,54,0.00,,---,0.00,VWS V14.00,2013-02-06 03:33:00,
2013-02-05 22:35:00,45.2,29.5,28.94,NW,320,0.0,0.0,54,0.00,,---,0.00,VWS V14.00,2013-02-06 03:35:00,
2013-02-05 22:38:00,45.0,29.4,28.94,NW,321,0.0,0.0,54,0.00,,---,0.00,VWS V14.00,2013-02-06 03:38:00,
2013-02-05 22:40:00,44.8,29.2,28.94,NW,321,0.0,0.0,54,0.00,,---,0.00,VWS V14.00,2013-02-06 03:40:00,
2013-02-05 22:43:00,44.8,29.2,28.94,NW,320,0.0,0.0,54,0.00,,---,0.00,VWS V14.00,2013-02-06 03:43:00,
2013-02-05 22:45:00,44.6,29.0,28.94,NW,320,0.0,0.0,54,0.00,,---,0.00,VWS V14.00,2013-02-06 03:45:00,
2013-02-05 22:48:00,44.4,28.9,28.94,NW,321,0.0,0.0,54,0.00,,---,0.00,VWS V14.00,2013-02-06 03:48:00,
2013-02-05 22:50:00,44.4,28.9,28.94,NW,320,0.0,0.0,54,0.00,,---,0.00,VWS V14.00,2013-02-06 03:50:00,
2013-02-05 22:53:00,44.4,28.9,28.94,NW,321,0.0,0.0,54,0.00,,---,0.00,VWS V14.00,2013-02-06 03:53:00,
2013-02-05 22:55:00,44.3,28.7,28.94,NW,320,0.0,0.0,54,0.00,,---,0.00,VWS V14.00,2013-02-06 03:55:00,
2013-02-05 22:56:00,44.3,28.7,28.94,NW,321,0.0,0.0,54,0.00,,---,0.00,VWS V14.00,2013-02-06 03:56:00,
2013-02-05 22:58:00,44.3,28.7,28.94,NW,320,0.0,0.0,54,0.00,,---,0.00,VWS V14.00,2013-02-06 03:58:00,
2013-02-05 23:00:00,44.3,28.7,28.94,NW,320,0.0,0.0,54,0.00,,---,0.00,VWS V14.00,2013-02-06 04:00:00,
2013-02-05 23:01:00,44.3,28.7,28.94,NW,321,0.0,0.0,54,0.00,,---,0.00,VWS V14.00,2013-02-06 04:01:00,
2013-02-05 23:03:00,44.1,28.5,28.94,NW,320,0.0,0.0,54,0.00,,---,0.00,VWS V14.00,2013-02-06 04:03:00,
2013-02-05 23:04:00,44.1,28.5,28.94,NW,320,0.0,0.0,54,0.00,,---,0.00,VWS V14.00,2013-02-06 04:04:00,
2013-02-05 23:05:00,43.9,28.4,28.94,NW,320,0.0,0.0,54,0.00,,---,0.00,VWS V14.00,2013-02-06 04:05:00,
2013-02-05 23:06:00,43.9,28.4,28.94,NW,321,0.0,0.0,54,0.00,,---,0.00,VWS V14.00,2013-02-06 04:06:00,
2013-02-05 23:08:00,43.7,28.2,28.94,NW,321,0.0,0.0,54,0.00,,---,0.00,VWS V14.00,2013-02-06 04:08:00,
2013-02-05 23:09:00,43.7,28.2,28.94,NW,320,0.0,0.0,54,0.00,,---,0.00,VWS V14.00,2013-02-06 04:09:00,
2013-02-05 23:10:00,43.7,28.2,28.94,NW,321,0.0,0.0,54,0.00,,---,0.00,VWS V14.00,2013-02-06 04:10:00,
2013-02-05 23:11:00,43.7,28.2,28.94,NW,321,0.0,0.0,54,0.00,,---,0.00,VWS V14.00,2013-02-06 04:11:00,
2013-02-05 23:13:00,43.5,28.0,28.94,NW,321,0.0,0.0,54,0.00,,---,0.00,VWS V14.00,2013-02-06 04:13:00,
2013-02-05 23:14:00,43.5,28.0,28.94,NW,321,0.0,0.0,54,0.00,,---,0.00,VWS V14.00,2013-02-06 04:14:00,
2013-02-05 23:15:00,43.5,28.0,28.94,NW,320,0.0,0.0,54,0.00,,---,0.00,VWS V14.00,2013-02-06 04:15:00,
2013-02-05 23:16:00,43.5,28.0,28.94,NW,320,0.0,0.0,54,0.00,,---,0.00,VWS V14.00,2013-02-06 04:16:00,
2013-02-05 23:18:00,43.2,27.7,28.94,NW,320,0.0,0.0,54,0.00,,---,0.00,VWS V14.00,2013-02-06 04:18:00,
2013-02-05 23:19:00,43.2,27.7,28.94,NW,321,0.0,0.0,54,0.00,,---,0.00,VWS V14.00,2013-02-06 04:19:00,
2013-02-05 23:20:00,43.2,27.7,28.94,NW,321,0.0,0.0,54,0.00,,---,0.00,VWS V14.00,2013-02-06 04:20:00,
2013-02-05 23:21:00,43.2,31.5,28.94,NW,320,0.0,0.0,63,0.00,,---,0.00,VWS V14.00,2013-02-06 04:21:00,
2013-02-05 23:23:00,43.0,31.3,28.94,NW,320,0.0,0.0,63,0.00,,---,0.00,VWS V14.00,2013-02-06 04:23:00,
2013-02-05 23:24:00,43.0,31.3,28.94,NW,320,0.0,0.0,63,0.00,,---,0.00,VWS V14.00,2013-02-06 04:24:00,
2013-02-05 23:25:00,43.0,31.3,28.94,NW,321,0.0,0.0,63,0.00,,---,0.00,VWS V14.00,2013-02-06 04:25:00,
2013-02-05 23:26:00,43.0,31.3,28.94,NW,320,0.0,0.0,63,0.00,,---,0.00,VWS V14.00,2013-02-06 04:26:00,
2013-02-05 23:28:00,42.8,31.1,28.94,NW,321,0.0,0.0,63,0.00,,---,0.00,VWS V14.00,2013-02-06 04:28:00,
2013-02-05 23:29:00,42.8,31.1,28.94,NW,320,0.0,0.0,63,0.00,,---,0.00,VWS V14.00,2013-02-06 04:29:00,
2013-02-05 23:30:00,42.8,31.1,28.94,NW,320,0.0,0.0,63,0.00,,---,0.00,VWS V14.00,2013-02-06 04:30:00,
2013-02-05 23:31:00,42.8,31.1,28.94,NW,321,0.0,0.0,63,0.00,,---,0.00,VWS V14.00,2013-02-06 04:31:00,
2013-02-05 23:33:00,42.6,30.9,28.94,NW,320,0.0,0.0,63,0.00,,---,0.00,VWS V14.00,2013-02-06 04:33:00,
2013-02-05 23:34:00,42.6,30.9,28.94,NW,320,0.0,0.0,63,0.00,,---,0.00,VWS V14.00,2013-02-06 04:34:00,
2013-02-05 23:35:00,42.6,30.9,28.94,NW,320,0.0,0.0,63,0.00,,---,0.00,VWS V14.00,2013-02-06 04:35:00,
2013-02-05 23:36:00,42.6,30.9,28.94,NW,320,0.0,0.0,63,0.00,,---,0.00,VWS V14.00,2013-02-06 04:36:00,
2013-02-05 23:38:00,42.5,30.8,28.94,NW,321,0.0,0.0,63,0.00,,---,0.00,VWS V14.00,2013-02-06 04:38:00,
2013-02-05 23:39:00,42.5,30.8,28.94,NW,320,0.0,0.0,63,0.00,,---,0.00,VWS V14.00,2013-02-06 04:39:00,
2013-02-05 23:40:00,42.5,30.8,28.94,NW,320,0.0,0.0,63,0.00,,---,0.00,VWS V14.00,2013-02-06 04:40:00,
2013-02-05 23:41:00,42.5,30.8,28.94,NW,320,0.0,0.0,63,0.00,,---,0.00,VWS V14.00,2013-02-06 04:41:00,
2013-02-05 23:43:00,42.3,30.6,28.94,NW,320,0.0,0.0,63,0.00,,---,0.00,VWS V14.00,2013-02-06 04:43:00,
2013-02-05 23:44:00,42.3,30.6,28.94,NW,320,0.0,0.0,63,0.00,,---,0.00,VWS V14.00,2013-02-06 04:44:00,
2013-02-05 23:45:00,42.3,30.6,28.94,NW,321,0.0,0.0,63,0.00,,---,0.00,VWS V14.00,2013-02-06 04:45:00,
2013-02-05 23:46:00,42.3,30.6,28.94,NW,320,0.0,0.0,63,0.00,,---,0.00,VWS V14.00,2013-02-06 04:46:00,
2013-02-05 23:48:00,42.1,30.4,28.94,NW,320,0.0,0.0,63,0.00,,---,0.00,VWS V14.00,2013-02-06 04:48:00,
2013-02-05 23:49:00,42.1,30.4,28.94,NW,320,0.0,0.0,63,0.00,,---,0.00,VWS V14.00,2013-02-06 04:49:00,
2013-02-05 23:50:00,42.1,30.4,28.94,NW,320,0.0,0.0,63,0.00,,---,0.00,VWS V14.00,2013-02-06 04:50:00,
2013-02-05 23:51:00,42.1,30.4,28.94,NW,320,0.0,0.0,63,0.00,,---,0.00,VWS V14.00,2013-02-06 04:51:00,
2013-02-05 23:53:00,41.9,30.3,28.94,NW,321,0.0,0.0,63,0.00,,---,0.00,VWS V14.00,2013-02-06 04:53:00,
2013-02-05 23:54:00,41.9,30.3,28.94,NW,321,0.0,0.0,63,0.00,,---,0.00,VWS V14.00,2013-02-06 04:54:00,
2013-02-05 23:56:00,41.9,30.3,28.94,NW,321,0.0,0.0,63,0.00,,---,0.00,VWS V14.00,2013-02-06 04:56:00,
2013-02-05 23:58:00,41.7,30.1,28.94,NW,320,0.0,0.0,63,0.00,,---,0.00,VWS V14.00,2013-02-06 04:58:00,
2013-02-05 23:59:00,41.7,30.1,28.94,NW,321,0.0,0.0,63,0.00,,---,0.00,VWS V14.00,2013-02-06 04:59:00,